Time,TemperatureF,DewpointF,PressureIn,WindDirection,WindDirectionDegrees,WindSpeedMPH,WindSpeedGustMPH,Humidity,HourlyPrecipIn,Conditions,Clouds,dailyrainin,SolarRadiationWatts/m^2,SoftwareType,DateUTC
2013-09-26 00:00:00,62.9,58.0,29.71,West,263,0.0,0.0,84,0.00,,,0.00,0,Wunderground v.1.15,2013-09-26 04:00:00,
2013-09-26 00:01:00,63.0,58.1,29.71,West,263,0.0,0.0,84,0.00,,,0.00,0,Wunderground v.1.15,2013-09-26 04:01:00,
2013-09-26 00:02:00,63.0,58.4,29.71,West,263,0.0,0.0,85,0.00,,,0.00,0,Wunderground v.1.15,2013-09-26 04:02:00,
2013-09-26 00:04:00,63.0,58.4,29.71,West,263,0.0,0.0,85,0.00,,,0.00,0,Wunderground v.1.15,2013-09-26 04:04:00,
2013-09-26 00:06:00,63.0,58.4,29.71,West,263,0.0,0.0,85,0.00,,,0.00,0,Wunderground v.1.15,2013-09-26 04:06:00,
2013-09-26 00:07:00,63.0,58.4,29.71,West,263,0.0,0.0,85,0.00,,,0.00,0,Wunderground v.1.15,2013-09-26 04:07:00,
2013-09-26 00:09:00,63.0,58.4,29.71,West,263,0.0,0.0,85,0.00,,,0.00,0,Wunderground v.1.15,2013-09-26 04:09:00,
2013-09-26 00:11:00,63.0,58.4,29.71,West,263,0.0,0.0,85,0.00,,,0.00,0,Wunderground v.1.15,2013-09-26 04:11:00,
2013-09-26 00:12:00,63.0,58.4,29.71,West,263,0.0,0.0,85,0.00,,,0.00,0,Wunderground v.1.15,2013-09-26 04:12:00,
2013-09-26 00:15:00,62.9,58.6,29.71,West,263,0.0,0.0,86,0.00,,,0.00,0,Wunderground v.1.15,2013-09-26 04:15:00,
2013-09-26 00:16:00,62.9,58.6,29.71,West,263,0.0,0.0,86,0.00,,,0.00,0,Wunderground v.1.15,2013-09-26 04:16:00,
2013-09-26 00:17:00,62.9,58.6,29.71,West,263,0.0,0.0,86,0.00,,,0.00,0,Wunderground v.1.15,2013-09-26 04:17:00,
2013-09-26 00:19:00,62.8,58.5,29.71,West,263,0.0,0.0,86,0.00,,,0.00,0,Wunderground v.1.15,2013-09-26 04:19:00,
2013-09-26 00:20:00,62.8,58.5,29.71,West,263,0.0,0.0,86,0.00,,,0.00,0,Wunderground v.1.15,2013-09-26 04:20:00,
2013-09-26 00:22:00,62.7,58.5,29.71,West,263,0.0,0.0,86,0.00,,,0.00,0,Wunderground v.1.15,2013-09-26 04:22:00,
2013-09-26 00:23:00,62.7,58.5,29.71,West,263,0.0,0.0,86,0.00,,,0.00,0,Wunderground v.1.15,2013-09-26 04:23:00,
2013-09-26 00:25:00,62.7,58.5,29.71,West,263,0.0,0.0,86,0.00,,,0.00,0,Wunderground v.1.15,2013-09-26 04:25:00,
2013-09-26 00:26:00,62.7,58.5,29.71,West,263,0.0,0.0,86,0.00,,,0.00,0,Wunderground v.1.15,2013-09-26 04:26:00,
2013-09-26 00:27:00,62.6,58.4,29.71,West,263,0.0,0.0,86,0.00,,,0.00,0,Wunderground v.1.15,2013-09-26 04:27:00,
2013-09-26 00:28:00,62.6,58.4,29.71,West,263,0.0,0.0,86,0.00,,,0.00,0,Wunderground v.1.15,2013-09-26 04:28:00,
2013-09-26 00:30:00,62.6,58.4,29.71,West,263,0.0,0.0,86,0.00,,,0.00,0,Wunderground v.1.15,2013-09-26 04:30:00,
2013-09-26 00:32:00,62.5,58.3,29.71,West,263,0.0,0.0,86,0.00,,,0.00,0,Wunderground v.1.15,2013-09-26 04:32:00,
2013-09-26 00:35:00,62.5,58.3,29.71,West,263,0.0,0.0,86,0.00,,,0.00,0,Wunderground v.1.15,2013-09-26 04:35:00,
2013-09-26 00:36:00,62.5,58.3,29.71,West,263,0.0,0.0,86,0.00,,,0.00,0,Wunderground v.1.15,2013-09-26 04:36:00,
2013-09-26 00:38:00,62.4,58.2,29.71,West,263,0.0,0.0,86,0.00,,,0.00,0,Wunderground v.1.15,2013-09-26 04:38:00,
2013-09-26 00:41:00,62.4,58.2,29.71,West,263,0.0,0.0,86,0.00,,,0.00,0,Wunderground v.1.15,2013-09-26 04:41:00,
2013-09-26 00:43:00,62.4,58.2,29.71,West,263,0.0,0.0,86,0.00,,,0.00,0,Wunderground v.1.15,2013-09-26 04:43:00,
2013-09-26 00:46:00,62.3,58.1,29.71,West,263,0.0,0.0,86,0.00,,,0.00,0,Wunderground v.1.15,2013-09-26 04:46:00,
2013-09-26 00:48:00,62.3,58.1,29.71,West,263,0.0,0.0,86,0.00,,,0.00,0,Wunderground v.1.15,2013-09-26 04:48:00,
2013-09-26 00:49:00,62.3,58.1,29.71,West,263,0.0,0.0,86,0.00,,,0.00,0,Wunderground v.1.15,2013-09-26 04:49:00,
2013-09-26 00:51:00,62.3,58.1,29.71,West,263,0.0,0.0,86,0.00,,,0.00,0,Wunderground v.1.15,2013-09-26 04:51:00,
2013-09-26 00:54:00,62.2,58.0,29.71,West,263,0.0,0.0,86,0.00,,,0.00,0,Wunderground v.1.15,2013-09-26 04:54:00,
2013-09-26 00:56:00,62.2,58.0,29.71,West,263,0.0,0.0,86,0.00,,,0.00,0,Wunderground v.1.15,2013-09-26 04:56:00,
2013-09-26 00:57:00,62.2,58.3,29.71,West,263,0.0,0.0,87,0.00,,,0.00,0,Wunderground v.1.15,2013-09-26 04:57:00,
2013-09-26 01:01:00,62.1,58.2,29.71,West,263,0.0,0.0,87,0.00,,,0.00,0,Wunderground v.1.15,2013-09-26 05:01:00,
2013-09-26 01:02:00,62.1,58.2,29.71,West,263,0.0,0.0,87,0.00,,,0.00,0,Wunderground v.1.15,2013-09-26 05:02:00,
2013-09-26 01:05:00,62.0,58.1,29.71,West,263,0.0,0.0,87,0.00,,,0.00,0,Wunderground v.1.15,2013-09-26 05:05:00,
2013-09-26 01:06:00,62.0,58.1,29.71,West,263,0.0,0.0,87,0.00,,,0.00,0,Wunderground v.1.15,2013-09-26 05:06:00,
2013-09-26 01:10:00,61.9,58.0,29.71,West,263,0.0,0.0,87,0.00,,,0.00,0,Wunderground v.1.15,2013-09-26 05:10:00,
2013-09-26 01:12:00,61.9,58.0,29.71,West,263,0.0,0.0,87,0.00,,,0.00,0,Wunderground v.1.15,2013-09-26 05:12:00,
2013-09-26 01:15:00,61.7,57.8,29.71,West,263,0.0,0.0,87,0.00,,,0.00,0,Wunderground v.1.15,2013-09-26 05:15:00,
2013-09-26 01:17:00,61.7,57.8,29.71,West,263,0.0,0.0,87,0.00,,,0.00,0,Wunderground v.1.15,2013-09-26 05:17:00,
2013-09-26 01:18:00,61.7,57.8,29.71,West,263,0.0,0.0,87,0.00,,,0.00,0,Wunderground v.1.15,2013-09-26 05:18:00,
2013-09-26 01:21:00,61.7,58.1,29.71,West,263,0.0,0.0,88,0.00,,,0.00,0,Wunderground v.1.15,2013-09-26 05:21:00,
2013-09-26 01:25:00,61.6,58.0,29.71,West,263,0.0,0.0,88,0.00,,,0.00,0,Wunderground v.1.15,2013-09-26 05:25:00,
2013-09-26 01:26:00,61.6,58.0,29.71,West,263,0.0,0.0,88,0.00,,,0.00,0,Wunderground v.1.15,2013-09-26 05:26:00,
2013-09-26 01:30:00,61.6,58.0,29.71,West,263,0.0,0.0,88,0.00,,,0.00,0,Wunderground v.1.15,2013-09-26 05:30:00,
2013-09-26 01:31:00,61.6,58.0,29.71,West,263,0.0,0.0,88,0.00,,,0.00,0,Wunderground v.1.15,2013-09-26 05:31:00,
2013-09-26 01:33:00,61.6,58.0,29.71,West,263,0.0,0.0,88,0.00,,,0.00,0,Wunderground v.1.15,2013-09-26 05:33:00,
2013-09-26 01:35:00,61.6,58.0,29.71,West,263,0.0,0.0,88,0.00,,,0.00,0,Wunderground v.1.15,2013-09-26 05:35:00,
2013-09-26 01:37:00,61.6,58.0,29.71,West,263,0.0,0.0,88,0.00,,,0.00,0,Wunderground v.1.15,2013-09-26 05:37:00,
2013-09-26 01:38:00,61.6,58.0,29.71,West,263,0.0,0.0,88,0.00,,,0.00,0,Wunderground v.1.15,2013-09-26 05:38:00,
2013-09-26 01:39:00,61.6,58.0,29.71,West,263,0.0,0.0,88,0.00,,,0.00,0,Wunderground v.1.15,2013-09-26 05:39:00,
2013-09-26 01:40:00,61.6,58.0,29.71,West,263,0.0,0.0,88,0.00,,,0.00,0,Wunderground v.1.15,2013-09-26 05:40:00,
2013-09-26 01:43:00,61.7,58.1,29.71,West,263,0.0,0.0,88,0.00,,,0.00,0,Wunderground v.1.15,2013-09-26 05:43:00,
2013-09-26 01:44:00,61.7,58.1,29.71,West,263,0.0,0.0,88,0.00,,,0.00,0,Wunderground v.1.15,2013-09-26 05:44:00,
2013-09-26 01:48:00,61.8,57.9,29.71,West,263,0.0,0.0,87,0.00,,,0.00,0,Wunderground v.1.15,2013-09-26 05:48:00,
2013-09-26 01:49:00,61.8,57.9,29.71,West,263,0.0,0.0,87,0.00,,,0.00,0,Wunderground v.1.15,2013-09-26 05:49:00,
2013-09-26 01:50:00,61.8,57.9,29.71,West,263,0.0,0.0,87,0.00,,,0.00,0,Wunderground v.1.15,2013-09-26 05:50:00,
2013-09-26 01:52:00,61.8,57.9,29.71,West,263,0.0,0.0,87,0.00,,,0.00,0,Wunderground v.1.15,2013-09-26 05:52:00,
2013-09-26 01:53:00,61.8,57.9,29.71,West,263,0.0,0.0,87,0.00,,,0.00,0,Wunderground v.1.15,2013-09-26 05:53:00,
2013-09-26 01:56:00,61.8,57.9,29.71,West,263,0.0,0.0,87,0.00,,,0.00,0,Wunderground v.1.15,2013-09-26 05:56:00,
2013-09-26 01:58:00,61.8,58.2,29.71,West,263,0.0,0.0,88,0.00,,,0.00,0,Wunderground v.1.15,2013-09-26 05:58:00,
2013-09-26 02:00:00,61.9,58.3,29.71,West,263,0.0,0.0,88,0.00,,,0.00,0,Wunderground v.1.15,2013-09-26 06:00:00,
2013-09-26 02:03:00,61.9,58.3,29.71,West,263,0.0,0.0,88,0.00,,,0.00,0,Wunderground v.1.15,2013-09-26 06:03:00,
2013-09-26 02:06:00,61.9,58.3,29.71,West,263,0.0,0.0,88,0.00,,,0.00,0,Wunderground v.1.15,2013-09-26 06:06:00,
2013-09-26 02:08:00,61.9,58.3,29.71,West,263,0.0,0.0,88,0.00,,,0.00,0,Wunderground v.1.15,2013-09-26 06:08:00,
2013-09-26 02:09:00,61.9,58.3,29.71,West,263,0.0,0.0,88,0.00,,,0.00,0,Wunderground v.1.15,2013-09-26 06:09:00,
2013-09-26 02:11:00,61.9,58.3,29.71,West,263,0.0,0.0,88,0.00,,,0.00,0,Wunderground v.1.15,2013-09-26 06:11:00,
2013-09-26 02:14:00,62.0,58.4,29.71,West,263,0.0,0.0,88,0.00,,,0.00,0,Wunderground v.1.15,2013-09-26 06:14:00,
2013-09-26 02:15:00,61.9,58.3,29.72,West,263,0.0,0.0,88,0.00,,,0.00,0,Wunderground v.1.15,2013-09-26 06:15:00,
2013-09-26 02:17:00,61.9,58.3,29.71,West,263,0.0,0.0,88,0.00,,,0.00,0,Wunderground v.1.15,2013-09-26 06:17:00,
2013-09-26 02:18:00,62.0,58.4,29.71,West,263,0.0,0.0,88,0.00,,,0.00,0,Wunderground v.1.15,2013-09-26 06:18:00,
2013-09-26 02:20:00,61.9,58.0,29.71,West,263,0.0,0.0,87,0.00,,,0.00,0,Wunderground v.1.15,2013-09-26 06:20:00,
2013-09-26 02:23:00,61.9,58.0,29.71,West,263,0.0,0.0,87,0.00,,,0.00,0,Wunderground v.1.15,2013-09-26 06:23:00,
2013-09-26 02:25:00,61.9,58.0,29.71,West,263,0.0,0.0,87,0.00,,,0.00,0,Wunderground v.1.15,2013-09-26 06:25:00,
2013-09-26 02:27:00,61.8,57.9,29.71,West,263,0.0,0.0,87,0.00,,,0.00,0,Wunderground v.1.15,2013-09-26 06:27:00,
2013-09-26 02:29:00,61.8,57.9,29.71,West,263,0.0,0.0,87,0.00,,,0.00,0,Wunderground v.1.15,2013-09-26 06:29:00,
2013-09-26 02:30:00,61.8,57.9,29.71,West,263,0.0,0.0,87,0.00,,,0.00,0,Wunderground v.1.15,2013-09-26 06:30:00,
2013-09-26 02:33:00,61.9,58.0,29.71,West,263,0.0,0.0,87,0.00,,,0.00,0,Wunderground v.1.15,2013-09-26 06:33:00,
2013-09-26 02:35:00,61.9,58.0,29.71,West,263,0.0,0.0,87,0.00,,,0.00,0,Wunderground v.1.15,2013-09-26 06:35:00,
2013-09-26 02:39:00,61.9,58.0,29.71,West,263,0.0,0.0,87,0.00,,,0.00,0,Wunderground v.1.15,2013-09-26 06:39:00,
2013-09-26 02:40:00,61.9,58.0,29.71,West,263,0.0,0.0,87,0.00,,,0.00,0,Wunderground v.1.15,2013-09-26 06:40:00,
2013-09-26 02:43:00,61.9,58.0,29.70,West,263,0.0,0.0,87,0.00,,,0.00,0,Wunderground v.1.15,2013-09-26 06:43:00,
2013-09-26 02:45:00,61.9,58.0,29.70,West,263,0.0,0.0,87,0.00,,,0.00,0,Wunderground v.1.15,2013-09-26 06:45:00,
2013-09-26 02:47:00,61.8,57.9,29.70,West,263,0.0,0.0,87,0.00,,,0.00,0,Wunderground v.1.15,2013-09-26 06:47:00,
2013-09-26 02:49:00,61.9,58.3,29.70,West,263,0.0,0.0,88,0.00,,,0.00,0,Wunderground v.1.15,2013-09-26 06:49:00,
2013-09-26 02:51:00,61.8,58.2,29.70,West,263,0.0,0.0,88,0.00,,,0.00,0,Wunderground v.1.15,2013-09-26 06:51:00,
2013-09-26 02:53:00,61.8,58.2,29.70,West,263,0.0,0.0,88,0.00,,,0.00,0,Wunderground v.1.15,2013-09-26 06:53:00,
2013-09-26 02:54:00,61.8,58.2,29.70,West,263,0.0,0.0,88,0.00,,,0.00,0,Wunderground v.1.15,2013-09-26 06:54:00,
2013-09-26 02:55:00,61.8,58.2,29.70,West,263,0.0,0.0,88,0.00,,,0.00,0,Wunderground v.1.15,2013-09-26 06:55:00,
2013-09-26 02:56:00,61.8,58.2,29.70,West,263,0.0,0.0,88,0.00,,,0.00,0,Wunderground v.1.15,2013-09-26 06:56:00,
2013-09-26 02:58:00,61.7,58.1,29.70,West,263,0.0,0.0,88,0.00,,,0.00,0,Wunderground v.1.15,2013-09-26 06:58:00,
2013-09-26 03:02:00,61.7,58.1,29.70,West,263,0.0,0.0,88,0.00,,,0.00,0,Wunderground v.1.15,2013-09-26 07:02:00,
2013-09-26 03:04:00,61.6,58.0,29.70,West,263,0.0,0.0,88,0.00,,,0.00,0,Wunderground v.1.15,2013-09-26 07:04:00,
2013-09-26 03:05:00,61.6,58.0,29.70,West,263,0.0,0.0,88,0.00,,,0.00,0,Wunderground v.1.15,2013-09-26 07:05:00,
2013-09-26 03:08:00,61.5,57.9,29.70,West,263,0.0,0.0,88,0.00,,,0.00,0,Wunderground v.1.15,2013-09-26 07:08:00,
2013-09-26 03:09:00,61.5,57.9,29.70,West,263,0.0,0.0,88,0.00,,,0.00,0,Wunderground v.1.15,2013-09-26 07:09:00,
2013-09-26 03:10:00,61.5,57.9,29.70,West,263,0.0,0.0,88,0.00,,,0.00,0,Wunderground v.1.15,2013-09-26 07:10:00,
2013-09-26 03:11:00,61.5,57.9,29.70,West,263,0.0,0.0,88,0.00,,,0.00,0,Wunderground v.1.15,2013-09-26 07:11:00,
2013-09-26 03:13:00,61.4,57.8,29.70,West,263,0.0,0.0,88,0.00,,,0.00,0,Wunderground v.1.15,2013-09-26 07:13:00,
2013-09-26 03:14:00,61.4,57.8,29.70,West,263,0.0,0.0,88,0.00,,,0.00,0,Wunderground v.1.15,2013-09-26 07:14:00,
2013-09-26 03:15:00,61.4,57.8,29.69,West,263,0.0,0.0,88,0.00,,,0.00,0,Wunderground v.1.15,2013-09-26 07:15:00,
2013-09-26 03:16:00,61.3,57.7,29.70,West,263,0.0,0.0,88,0.00,,,0.00,0,Wunderground v.1.15,2013-09-26 07:16:00,
2013-09-26 03:19:00,61.3,57.7,29.70,West,263,0.0,0.0,88,0.00,,,0.00,0,Wunderground v.1.15,2013-09-26 07:19:00,
2013-09-26 03:21:00,61.2,57.9,29.70,West,263,0.0,0.0,89,0.00,,,0.00,0,Wunderground v.1.15,2013-09-26 07:21:00,
2013-09-26 03:22:00,61.2,57.9,29.70,West,263,0.0,0.0,89,0.00,,,0.00,0,Wunderground v.1.15,2013-09-26 07:22:00,
2013-09-26 03:27:00,61.1,57.8,29.70,West,263,0.0,0.0,89,0.00,,,0.00,0,Wunderground v.1.15,2013-09-26 07:27:00,
2013-09-26 03:28:00,61.1,57.8,29.70,West,263,0.0,0.0,89,0.00,,,0.00,0,Wunderground v.1.15,2013-09-26 07:28:00,
2013-09-26 03:30:00,61.1,57.8,29.70,West,263,0.0,0.0,89,0.00,,,0.00,0,Wunderground v.1.15,2013-09-26 07:30:00,
2013-09-26 03:31:00,61.0,57.7,29.70,West,263,0.0,0.0,89,0.00,,,0.00,0,Wunderground v.1.15,2013-09-26 07:31:00,
2013-09-26 03:32:00,61.0,57.7,29.70,West,263,0.0,0.0,89,0.00,,,0.00,0,Wunderground v.1.15,2013-09-26 07:32:00,
2013-09-26 03:34:00,60.9,57.6,29.70,West,263,0.0,0.0,89,0.00,,,0.00,0,Wunderground v.1.15,2013-09-26 07:34:00,
2013-09-26 03:35:00,60.9,57.6,29.70,West,263,0.0,0.0,89,0.00,,,0.00,0,Wunderground v.1.15,2013-09-26 07:35:00,
2013-09-26 03:36:00,60.9,57.6,29.70,West,263,0.0,0.0,89,0.00,,,0.00,0,Wunderground v.1.15,2013-09-26 07:36:00,
2013-09-26 03:41:00,60.8,57.8,29.70,West,263,0.0,0.0,90,0.00,,,0.00,0,Wunderground v.1.15,2013-09-26 07:41:00,
2013-09-26 03:45:00,60.7,57.7,29.70,West,263,0.0,0.0,90,0.00,,,0.00,0,Wunderground v.1.15,2013-09-26 07:45:00,
2013-09-26 03:47:00,60.7,57.7,29.70,West,263,0.0,0.0,90,0.00,,,0.00,0,Wunderground v.1.15,2013-09-26 07:47:00,
2013-09-26 03:51:00,60.5,57.6,29.70,West,263,0.0,0.0,90,0.00,,,0.00,0,Wunderground v.1.15,2013-09-26 07:51:00,
2013-09-26 03:53:00,60.5,57.6,29.69,West,263,0.0,0.0,90,0.00,,,0.00,0,Wunderground v.1.15,2013-09-26 07:53:00,
2013-09-26 03:56:00,60.4,57.5,29.70,West,263,0.0,0.0,90,0.00,,,0.00,0,Wunderground v.1.15,2013-09-26 07:56:00,
2013-09-26 03:57:00,60.3,57.4,29.70,West,263,0.0,0.0,90,0.00,,,0.00,0,Wunderground v.1.15,2013-09-26 07:57:00,
2013-09-26 04:01:00,60.2,57.6,29.69,West,263,0.0,0.0,91,0.00,,,0.00,0,Wunderground v.1.15,2013-09-26 08:01:00,
2013-09-26 04:02:00,60.2,57.6,29.70,West,263,0.0,0.0,91,0.00,,,0.00,0,Wunderground v.1.15,2013-09-26 08:02:00,
2013-09-26 04:04:00,60.1,57.5,29.69,West,263,0.0,0.0,91,0.00,,,0.00,0,Wunderground v.1.15,2013-09-26 08:04:00,
2013-09-26 04:05:00,60.1,57.5,29.69,West,263,0.0,0.0,91,0.00,,,0.00,0,Wunderground v.1.15,2013-09-26 08:05:00,
2013-09-26 04:07:00,60.1,57.5,29.70,West,263,0.0,0.0,91,0.00,,,0.00,0,Wunderground v.1.15,2013-09-26 08:07:00,
2013-09-26 04:08:00,60.1,57.5,29.70,West,263,0.0,0.0,91,0.00,,,0.00,0,Wunderground v.1.15,2013-09-26 08:08:00,
2013-09-26 04:10:00,60.1,57.5,29.70,West,263,0.0,0.0,91,0.00,,,0.00,0,Wunderground v.1.15,2013-09-26 08:10:00,
2013-09-26 04:12:00,60.0,57.4,29.70,West,263,0.0,0.0,91,0.00,,,0.00,0,Wunderground v.1.15,2013-09-26 08:12:00,
2013-09-26 04:13:00,60.0,57.4,29.70,West,263,0.0,0.0,91,0.00,,,0.00,0,Wunderground v.1.15,2013-09-26 08:13:00,
2013-09-26 04:14:00,60.0,57.4,29.70,West,263,0.0,0.0,91,0.00,,,0.00,0,Wunderground v.1.15,2013-09-26 08:14:00,
2013-09-26 04:17:00,60.0,57.4,29.70,West,263,0.0,0.0,91,0.00,,,0.00,0,Wunderground v.1.15,2013-09-26 08:17:00,
2013-09-26 04:19:00,60.0,57.4,29.70,West,263,0.0,0.0,91,0.00,,,0.00,0,Wunderground v.1.15,2013-09-26 08:19:00,
2013-09-26 04:20:00,59.9,57.3,29.70,West,263,0.0,0.0,91,0.00,,,0.00,0,Wunderground v.1.15,2013-09-26 08:20:00,
2013-09-26 04:23:00,60.0,57.4,29.70,West,263,0.0,0.0,91,0.00,,,0.00,0,Wunderground v.1.15,2013-09-26 08:23:00,
2013-09-26 04:25:00,59.9,57.3,29.70,West,263,0.0,0.0,91,0.00,,,0.00,0,Wunderground v.1.15,2013-09-26 08:25:00,
2013-09-26 04:28:00,60.0,57.4,29.70,West,263,0.0,0.0,91,0.00,,,0.00,0,Wunderground v.1.15,2013-09-26 08:28:00,
2013-09-26 04:30:00,59.9,57.3,29.70,West,263,0.0,0.0,91,0.00,,,0.00,0,Wunderground v.1.15,2013-09-26 08:30:00,
2013-09-26 04:31:00,59.9,57.3,29.70,West,263,0.0,0.0,91,0.00,,,0.00,0,Wunderground v.1.15,2013-09-26 08:31:00,
2013-09-26 04:33:00,59.9,57.6,29.70,West,263,0.0,0.0,92,0.00,,,0.00,0,Wunderground v.1.15,2013-09-26 08:33:00,
2013-09-26 04:35:00,59.8,57.5,29.70,West,263,0.0,0.0,92,0.00,,,0.00,0,Wunderground v.1.15,2013-09-26 08:35:00,
2013-09-26 04:37:00,59.8,57.5,29.70,West,263,0.0,0.0,92,0.00,,,0.00,0,Wunderground v.1.15,2013-09-26 08:37:00,
2013-09-26 04:38:00,59.8,57.5,29.70,West,263,0.0,0.0,92,0.00,,,0.00,0,Wunderground v.1.15,2013-09-26 08:38:00,
2013-09-26 04:40:00,59.7,57.4,29.70,West,263,0.0,0.0,92,0.00,,,0.00,0,Wunderground v.1.15,2013-09-26 08:40:00,
2013-09-26 04:41:00,59.7,57.4,29.70,West,263,0.0,0.0,92,0.00,,,0.00,0,Wunderground v.1.15,2013-09-26 08:41:00,
2013-09-26 04:43:00,59.7,57.4,29.70,West,263,0.0,0.0,92,0.00,,,0.00,0,Wunderground v.1.15,2013-09-26 08:43:00,
2013-09-26 04:45:00,59.7,57.4,29.70,West,263,0.0,0.0,92,0.00,,,0.00,0,Wunderground v.1.15,2013-09-26 08:45:00,
2013-09-26 04:48:00,59.6,57.3,29.70,West,263,0.0,0.0,92,0.00,,,0.00,0,Wunderground v.1.15,2013-09-26 08:48:00,
2013-09-26 04:49:00,59.6,57.3,29.70,West,263,0.0,0.0,92,0.00,,,0.00,0,Wunderground v.1.15,2013-09-26 08:49:00,
2013-09-26 04:50:00,59.6,57.3,29.70,West,263,0.0,0.0,92,0.00,,,0.00,0,Wunderground v.1.15,2013-09-26 08:50:00,
2013-09-26 04:52:00,59.6,57.3,29.70,West,263,0.0,0.0,92,0.00,,,0.00,0,Wunderground v.1.15,2013-09-26 08:52:00,
2013-09-26 04:54:00,59.6,57.3,29.70,West,263,0.0,0.0,92,0.00,,,0.00,0,Wunderground v.1.15,2013-09-26 08:54:00,
2013-09-26 04:56:00,59.6,57.3,29.70,West,263,0.0,0.0,92,0.00,,,0.00,0,Wunderground v.1.15,2013-09-26 08:56:00,
2013-09-26 04:58:00,59.6,57.6,29.70,West,263,0.0,0.0,93,0.00,,,0.00,0,Wunderground v.1.15,2013-09-26 08:58:00,
2013-09-26 04:59:00,59.6,57.6,29.70,West,263,0.0,0.0,93,0.00,,,0.00,0,Wunderground v.1.15,2013-09-26 08:59:00,
2013-09-26 05:00:00,59.6,57.6,29.70,West,263,0.0,0.0,93,0.00,,,0.00,0,Wunderground v.1.15,2013-09-26 09:00:00,
2013-09-26 05:01:00,59.6,57.6,29.70,West,263,0.0,0.0,93,0.00,,,0.00,0,Wunderground v.1.15,2013-09-26 09:01:00,
2013-09-26 05:03:00,59.6,57.6,29.70,West,263,0.0,0.0,93,0.00,,,0.00,0,Wunderground v.1.15,2013-09-26 09:03:00,
2013-09-26 05:05:00,59.6,57.6,29.70,West,263,0.0,0.0,93,0.00,,,0.00,0,Wunderground v.1.15,2013-09-26 09:05:00,
2013-09-26 05:07:00,59.6,57.6,29.70,West,263,0.0,0.0,93,0.00,,,0.00,0,Wunderground v.1.15,2013-09-26 09:07:00,
2013-09-26 05:08:00,59.6,57.6,29.70,West,263,0.0,0.0,93,0.00,,,0.00,0,Wunderground v.1.15,2013-09-26 09:08:00,
2013-09-26 05:09:00,59.6,57.6,29.70,West,263,0.0,0.0,93,0.00,,,0.00,0,Wunderground v.1.15,2013-09-26 09:09:00,
2013-09-26 05:12:00,59.6,57.6,29.70,West,263,0.0,0.0,93,0.00,,,0.00,0,Wunderground v.1.15,2013-09-26 09:12:00,
2013-09-26 05:14:00,59.6,57.3,29.70,West,263,0.0,0.0,92,0.00,,,0.00,0,Wunderground v.1.15,2013-09-26 09:14:00,
2013-09-26 05:15:00,59.6,57.3,29.70,West,263,0.0,0.0,92,0.00,,,0.00,0,Wunderground v.1.15,2013-09-26 09:15:00,
2013-09-26 05:18:00,59.6,57.3,29.70,West,263,0.0,0.0,92,0.00,,,0.00,0,Wunderground v.1.15,2013-09-26 09:18:00,
2013-09-26 05:19:00,59.6,57.3,29.70,West,263,0.0,0.0,92,0.00,,,0.00,0,Wunderground v.1.15,2013-09-26 09:19:00,
2013-09-26 05:22:00,59.5,57.2,29.70,West,263,0.0,0.0,92,0.00,,,0.00,0,Wunderground v.1.15,2013-09-26 09:22:00,
2013-09-26 05:24:00,59.5,57.2,29.70,West,263,0.0,0.0,92,0.00,,,0.00,0,Wunderground v.1.15,2013-09-26 09:24:00,
2013-09-26 05:25:00,59.5,57.2,29.70,West,263,0.0,0.0,92,0.00,,,0.00,0,Wunderground v.1.15,2013-09-26 09:25:00,
2013-09-26 05:26:00,59.5,57.2,29.71,West,263,0.0,0.0,92,0.00,,,0.00,0,Wunderground v.1.15,2013-09-26 09:26:00,
2013-09-26 05:30:00,59.5,57.2,29.70,West,263,0.0,0.0,92,0.00,,,0.00,0,Wunderground v.1.15,2013-09-26 09:30:00,
2013-09-26 05:31:00,59.5,57.2,29.71,West,263,0.0,0.0,92,0.00,,,0.00,0,Wunderground v.1.15,2013-09-26 09:31:00,
2013-09-26 05:36:00,59.5,57.2,29.71,West,263,0.0,0.0,92,0.00,,,0.00,0,Wunderground v.1.15,2013-09-26 09:36:00,
2013-09-26 05:38:00,59.5,57.2,29.71,West,263,0.0,0.0,92,0.00,,,0.00,0,Wunderground v.1.15,2013-09-26 09:38:00,
2013-09-26 05:39:00,59.5,57.2,29.71,West,263,0.0,0.0,92,0.00,,,0.00,0,Wunderground v.1.15,2013-09-26 09:39:00,
2013-09-26 05:41:00,59.4,57.1,29.71,West,263,0.0,0.0,92,0.00,,,0.00,0,Wunderground v.1.15,2013-09-26 09:41:00,
2013-09-26 05:42:00,59.4,57.1,29.71,West,263,0.0,0.0,92,0.00,,,0.00,0,Wunderground v.1.15,2013-09-26 09:42:00,
2013-09-26 05:44:00,59.4,57.1,29.71,West,263,0.0,0.0,92,0.00,,,0.00,0,Wunderground v.1.15,2013-09-26 09:44:00,
2013-09-26 05:45:00,59.4,57.1,29.71,West,263,0.0,0.0,92,0.00,,,0.00,0,Wunderground v.1.15,2013-09-26 09:45:00,
2013-09-26 05:48:00,59.4,57.1,29.71,West,263,0.0,0.0,92,0.00,,,0.00,0,Wunderground v.1.15,2013-09-26 09:48:00,
2013-09-26 05:50:00,59.3,57.0,29.71,West,263,0.0,0.0,92,0.00,,,0.00,0,Wunderground v.1.15,2013-09-26 09:50:00,
2013-09-26 05:52:00,59.3,57.0,29.71,West,263,0.0,0.0,92,0.00,,,0.00,0,Wunderground v.1.15,2013-09-26 09:52:00,
2013-09-26 05:53:00,59.3,57.0,29.71,West,263,0.0,0.0,92,0.00,,,0.00,0,Wunderground v.1.15,2013-09-26 09:53:00,
2013-09-26 05:56:00,59.2,57.2,29.71,West,263,0.0,0.0,93,0.00,,,0.00,0,Wunderground v.1.15,2013-09-26 09:56:00,
2013-09-26 05:57:00,59.3,57.3,29.71,West,263,0.0,0.0,93,0.00,,,0.00,0,Wunderground v.1.15,2013-09-26 09:57:00,
2013-09-26 05:58:00,59.2,57.2,29.71,West,263,0.0,0.0,93,0.00,,,0.00,0,Wunderground v.1.15,2013-09-26 09:58:00,
2013-09-26 06:03:00,59.1,57.1,29.71,West,263,0.0,0.0,93,0.00,,,0.00,0,Wunderground v.1.15,2013-09-26 10:03:00,
2013-09-26 06:04:00,59.1,57.1,29.71,West,263,0.0,0.0,93,0.00,,,0.00,0,Wunderground v.1.15,2013-09-26 10:04:00,
2013-09-26 06:05:00,59.1,57.1,29.71,West,263,0.0,0.0,93,0.00,,,0.00,0,Wunderground v.1.15,2013-09-26 10:05:00,
2013-09-26 06:07:00,59.1,57.1,29.72,West,263,0.0,0.0,93,0.00,,,0.00,0,Wunderground v.1.15,2013-09-26 10:07:00,
2013-09-26 06:09:00,59.1,57.1,29.71,West,263,0.0,0.0,93,0.00,,,0.00,0,Wunderground v.1.15,2013-09-26 10:09:00,
2013-09-26 06:11:00,59.0,57.0,29.71,West,263,0.0,0.0,93,0.00,,,0.00,0,Wunderground v.1.15,2013-09-26 10:11:00,
2013-09-26 06:12:00,59.0,57.0,29.72,West,263,0.0,0.0,93,0.00,,,0.00,0,Wunderground v.1.15,2013-09-26 10:12:00,
2013-09-26 06:14:00,59.0,57.0,29.72,West,263,0.0,0.0,93,0.00,,,0.00,0,Wunderground v.1.15,2013-09-26 10:14:00,
2013-09-26 06:16:00,59.0,57.0,29.71,West,263,0.0,0.0,93,0.00,,,0.00,0,Wunderground v.1.15,2013-09-26 10:16:00,
2013-09-26 06:18:00,59.0,57.0,29.71,West,263,0.0,0.0,93,0.00,,,0.00,0,Wunderground v.1.15,2013-09-26 10:18:00,
2013-09-26 06:20:00,58.9,56.9,29.71,West,263,0.0,0.0,93,0.00,,,0.00,0,Wunderground v.1.15,2013-09-26 10:20:00,
2013-09-26 06:21:00,58.9,56.9,29.71,West,263,0.0,0.0,93,0.00,,,0.00,0,Wunderground v.1.15,2013-09-26 10:21:00,
2013-09-26 06:23:00,58.9,56.9,29.71,West,263,0.0,0.0,93,0.00,,,0.00,0,Wunderground v.1.15,2013-09-26 10:23:00,
2013-09-26 06:25:00,58.9,56.9,29.71,West,263,0.0,0.0,93,0.00,,,0.00,0,Wunderground v.1.15,2013-09-26 10:25:00,
2013-09-26 06:27:00,58.9,56.9,29.71,West,263,0.0,0.0,93,0.00,,,0.00,0,Wunderground v.1.15,2013-09-26 10:27:00,
2013-09-26 06:30:00,58.9,57.2,29.71,West,263,0.0,0.0,94,0.00,,,0.00,0,Wunderground v.1.15,2013-09-26 10:30:00,
2013-09-26 06:31:00,58.9,57.2,29.71,West,263,0.0,0.0,94,0.00,,,0.00,0,Wunderground v.1.15,2013-09-26 10:31:00,
2013-09-26 06:33:00,58.9,57.2,29.71,West,263,0.0,0.0,94,0.00,,,0.00,0,Wunderground v.1.15,2013-09-26 10:33:00,
2013-09-26 06:35:00,58.9,57.2,29.71,West,263,0.0,0.0,94,0.00,,,0.00,0,Wunderground v.1.15,2013-09-26 10:35:00,
2013-09-26 06:36:00,58.9,57.2,29.71,West,263,0.0,0.0,94,0.00,,,0.00,0,Wunderground v.1.15,2013-09-26 10:36:00,
2013-09-26 06:37:00,58.9,57.2,29.71,West,263,0.0,0.0,94,0.00,,,0.00,0,Wunderground v.1.15,2013-09-26 10:37:00,
2013-09-26 06:39:00,59.0,57.3,29.71,West,263,0.0,0.0,94,0.00,,,0.00,0,Wunderground v.1.15,2013-09-26 10:39:00,
2013-09-26 06:42:00,59.0,57.3,29.72,West,263,0.0,0.0,94,0.00,,,0.00,0,Wunderground v.1.15,2013-09-26 10:42:00,
2013-09-26 06:45:00,59.0,57.3,29.72,West,263,0.0,0.0,94,0.00,,,0.00,0,Wunderground v.1.15,2013-09-26 10:45:00,
2013-09-26 06:46:00,59.0,57.3,29.72,West,263,0.0,0.0,94,0.00,,,0.00,0,Wunderground v.1.15,2013-09-26 10:46:00,
2013-09-26 06:47:00,58.9,57.2,29.72,West,263,0.0,0.0,94,0.00,,,0.00,0,Wunderground v.1.15,2013-09-26 10:47:00,
2013-09-26 06:49:00,59.0,57.3,29.72,West,263,0.0,0.0,94,0.00,,,0.00,0,Wunderground v.1.15,2013-09-26 10:49:00,
2013-09-26 06:51:00,58.9,57.2,29.72,West,263,0.0,0.0,94,0.00,,,0.00,0,Wunderground v.1.15,2013-09-26 10:51:00,
2013-09-26 06:55:00,58.9,57.2,29.72,West,263,0.0,0.0,94,0.00,,,0.00,0,Wunderground v.1.15,2013-09-26 10:55:00,
2013-09-26 06:56:00,58.9,57.2,29.72,West,263,0.0,0.0,94,0.00,,,0.00,0,Wunderground v.1.15,2013-09-26 10:56:00,
2013-09-26 06:58:00,58.9,57.2,29.72,West,263,0.0,0.0,94,0.00,,,0.00,0,Wunderground v.1.15,2013-09-26 10:58:00,
2013-09-26 07:00:00,58.9,57.2,29.72,West,263,0.0,0.0,94,0.00,,,0.00,0,Wunderground v.1.15,2013-09-26 11:00:00,
2013-09-26 07:01:00,58.9,57.2,29.72,West,263,0.0,0.0,94,0.00,,,0.00,0,Wunderground v.1.15,2013-09-26 11:01:00,
2013-09-26 07:05:00,58.9,57.2,29.72,West,263,0.0,0.0,94,0.00,,,0.00,0,Wunderground v.1.15,2013-09-26 11:05:00,
2013-09-26 07:06:00,58.8,57.1,29.72,West,263,0.0,0.0,94,0.00,,,0.00,0,Wunderground v.1.15,2013-09-26 11:06:00,
2013-09-26 07:07:00,58.8,57.1,29.72,West,263,0.0,0.0,94,0.00,,,0.00,0,Wunderground v.1.15,2013-09-26 11:07:00,
2013-09-26 07:10:00,58.8,57.1,29.72,West,263,0.0,0.0,94,0.00,,,0.00,0,Wunderground v.1.15,2013-09-26 11:10:00,
2013-09-26 07:12:00,58.8,57.1,29.72,West,263,0.0,0.0,94,0.00,,,0.00,0,Wunderground v.1.15,2013-09-26 11:12:00,
2013-09-26 07:13:00,58.8,57.1,29.72,West,263,0.0,0.0,94,0.00,,,0.00,0,Wunderground v.1.15,2013-09-26 11:13:00,
2013-09-26 07:17:00,58.7,57.0,29.72,West,267,0.0,0.0,94,0.00,,,0.00,0,Wunderground v.1.15,2013-09-26 11:17:00,
2013-09-26 07:18:00,58.7,57.0,29.72,West,267,0.0,0.0,94,0.00,,,0.00,0,Wunderground v.1.15,2013-09-26 11:18:00,
2013-09-26 07:19:00,58.7,57.0,29.72,West,267,0.0,0.0,94,0.00,,,0.00,0,Wunderground v.1.15,2013-09-26 11:19:00,
2013-09-26 07:23:00,58.6,56.9,29.72,West,267,0.0,0.0,94,0.00,,,0.00,5,Wunderground v.1.15,2013-09-26 11:23:00,
2013-09-26 07:24:00,58.6,56.9,29.73,West,267,0.0,0.0,94,0.00,,,0.00,5,Wunderground v.1.15,2013-09-26 11:24:00,
2013-09-26 07:25:00,58.6,56.9,29.73,West,267,0.0,0.0,94,0.00,,,0.00,5,Wunderground v.1.15,2013-09-26 11:25:00,
2013-09-26 07:28:00,58.6,56.9,29.73,West,267,0.0,0.0,94,0.00,,,0.00,7,Wunderground v.1.15,2013-09-26 11:28:00,
2013-09-26 07:30:00,58.6,56.9,29.72,West,267,0.0,0.0,94,0.00,,,0.00,7,Wunderground v.1.15,2013-09-26 11:30:00,
2013-09-26 07:31:00,58.6,56.9,29.73,West,267,0.0,0.0,94,0.00,,,0.00,7,Wunderground v.1.15,2013-09-26 11:31:00,
2013-09-26 07:32:00,58.6,56.9,29.73,West,267,0.0,0.0,94,0.00,,,0.00,7,Wunderground v.1.15,2013-09-26 11:32:00,
2013-09-26 07:33:00,58.6,56.9,29.73,West,267,0.0,0.0,94,0.00,,,0.00,9,Wunderground v.1.15,2013-09-26 11:33:00,
2013-09-26 07:37:00,58.6,56.9,29.73,West,267,0.0,0.0,94,0.00,,,0.00,9,Wunderground v.1.15,2013-09-26 11:37:00,
2013-09-26 07:39:00,58.6,56.9,29.73,West,267,0.0,0.0,94,0.00,,,0.00,11,Wunderground v.1.15,2013-09-26 11:39:00,
2013-09-26 07:40:00,58.6,56.9,29.73,West,267,0.0,0.0,94,0.00,,,0.00,11,Wunderground v.1.15,2013-09-26 11:40:00,
2013-09-26 07:43:00,58.6,56.9,29.73,West,267,0.0,0.0,94,0.00,,,0.00,12,Wunderground v.1.15,2013-09-26 11:43:00,
2013-09-26 07:44:00,58.7,57.0,29.73,West,267,0.0,0.0,94,0.00,,,0.00,12,Wunderground v.1.15,2013-09-26 11:44:00,
2013-09-26 07:45:00,58.7,57.0,29.73,West,267,0.0,0.0,94,0.00,,,0.00,14,Wunderground v.1.15,2013-09-26 11:45:00,
2013-09-26 07:48:00,58.7,57.0,29.73,West,267,0.0,0.0,94,0.00,,,0.00,14,Wunderground v.1.15,2013-09-26 11:48:00,
2013-09-26 07:50:00,58.7,57.0,29.74,West,267,0.0,0.0,94,0.00,,,0.00,16,Wunderground v.1.15,2013-09-26 11:50:00,
2013-09-26 07:51:00,58.7,57.0,29.74,West,267,0.0,0.0,94,0.00,,,0.00,18,Wunderground v.1.15,2013-09-26 11:51:00,
2013-09-26 07:53:00,58.7,57.0,29.73,West,267,0.0,0.0,94,0.00,,,0.00,18,Wunderground v.1.15,2013-09-26 11:53:00,
2013-09-26 07:55:00,58.7,57.0,29.74,West,267,0.0,0.0,94,0.00,,,0.00,19,Wunderground v.1.15,2013-09-26 11:55:00,
2013-09-26 07:59:00,58.8,57.1,29.74,West,267,0.0,0.0,94,0.00,,,0.00,23,Wunderground v.1.15,2013-09-26 11:59:00,
2013-09-26 08:00:00,58.8,57.1,29.74,West,267,0.0,0.0,94,0.00,,,0.00,25,Wunderground v.1.15,2013-09-26 12:00:00,
2013-09-26 08:01:00,58.8,57.1,29.74,West,267,0.0,0.0,94,0.00,,,0.00,26,Wunderground v.1.15,2013-09-26 12:01:00,
2013-09-26 08:02:00,58.8,57.1,29.74,West,267,0.0,0.0,94,0.00,,,0.00,26,Wunderground v.1.15,2013-09-26 12:02:00,
2013-09-26 08:04:00,58.9,57.2,29.74,West,267,0.0,0.0,94,0.00,,,0.00,28,Wunderground v.1.15,2013-09-26 12:04:00,
2013-09-26 08:05:00,58.9,57.2,29.74,West,267,0.0,0.0,94,0.00,,,0.00,30,Wunderground v.1.15,2013-09-26 12:05:00,
2013-09-26 08:07:00,58.9,57.2,29.74,West,267,0.0,0.0,94,0.00,,,0.00,32,Wunderground v.1.15,2013-09-26 12:07:00,
2013-09-26 08:09:00,58.9,57.2,29.74,West,267,0.0,0.0,94,0.00,,,0.00,33,Wunderground v.1.15,2013-09-26 12:09:00,
2013-09-26 08:10:00,58.9,57.2,29.74,West,267,0.0,0.0,94,0.00,,,0.00,35,Wunderground v.1.15,2013-09-26 12:10:00,
2013-09-26 08:12:00,59.0,57.3,29.74,West,267,0.0,0.0,94,0.00,,,0.00,37,Wunderground v.1.15,2013-09-26 12:12:00,
2013-09-26 08:14:00,59.0,57.3,29.74,NNE,23,0.0,0.0,94,0.00,,,0.00,42,Wunderground v.1.15,2013-09-26 12:14:00,
2013-09-26 08:18:00,59.0,57.3,29.74,NNE,24,0.0,0.0,94,0.00,,,0.00,47,Wunderground v.1.15,2013-09-26 12:18:00,
2013-09-26 08:19:00,59.1,57.4,29.74,NNE,24,0.0,0.0,94,0.00,,,0.00,49,Wunderground v.1.15,2013-09-26 12:19:00,
2013-09-26 08:22:00,59.1,57.4,29.74,NNE,23,0.0,0.0,94,0.00,,,0.00,53,Wunderground v.1.15,2013-09-26 12:22:00,
2013-09-26 08:24:00,59.1,57.4,29.74,NNE,23,0.0,0.0,94,0.00,,,0.00,56,Wunderground v.1.15,2013-09-26 12:24:00,
2013-09-26 08:28:00,59.3,57.6,29.74,NNE,24,0.0,0.0,94,0.00,,,0.00,63,Wunderground v.1.15,2013-09-26 12:28:00,
2013-09-26 08:29:00,59.3,57.6,29.74,NNE,24,0.0,0.0,94,0.00,,,0.00,67,Wunderground v.1.15,2013-09-26 12:29:00,
2013-09-26 08:30:00,59.3,57.6,29.74,NNE,23,0.0,0.0,94,0.00,,,0.00,67,Wunderground v.1.15,2013-09-26 12:30:00,
2013-09-26 08:32:00,59.4,57.7,29.74,NNE,24,0.0,0.0,94,0.00,,,0.00,69,Wunderground v.1.15,2013-09-26 12:32:00,
2013-09-26 08:36:00,59.6,57.9,29.75,NNE,24,0.0,0.0,94,0.00,,,0.00,69,Wunderground v.1.15,2013-09-26 12:36:00,
2013-09-26 08:37:00,59.6,57.9,29.74,NNE,23,0.0,0.0,94,0.00,,,0.00,70,Wunderground v.1.15,2013-09-26 12:37:00,
2013-09-26 08:39:00,59.7,57.7,29.75,NNE,24,0.0,0.0,93,0.00,,,0.00,70,Wunderground v.1.15,2013-09-26 12:39:00,
2013-09-26 08:41:00,59.8,57.8,29.74,NNE,24,0.0,0.0,93,0.00,,,0.00,72,Wunderground v.1.15,2013-09-26 12:41:00,
2013-09-26 08:45:00,59.9,57.9,29.75,NNE,23,0.0,0.0,93,0.00,,,0.00,81,Wunderground v.1.15,2013-09-26 12:45:00,
2013-09-26 08:49:00,60.0,58.0,29.75,NNE,23,0.0,0.0,93,0.00,,,0.00,95,Wunderground v.1.15,2013-09-26 12:49:00,
2013-09-26 08:51:00,60.1,58.1,29.75,NNE,23,0.0,0.0,93,0.00,,,0.00,102,Wunderground v.1.15,2013-09-26 12:51:00,
2013-09-26 08:54:00,60.2,58.2,29.75,NNE,24,0.0,0.0,93,0.00,,,0.00,114,Wunderground v.1.15,2013-09-26 12:54:00,
2013-09-26 08:56:00,60.4,58.4,29.76,NNE,23,0.0,0.0,93,0.00,,,0.00,121,Wunderground v.1.15,2013-09-26 12:56:00,
2013-09-26 08:57:00,60.5,58.5,29.76,NNE,24,0.0,0.0,93,0.00,,,0.00,127,Wunderground v.1.15,2013-09-26 12:57:00,
2013-09-26 08:59:00,60.7,58.7,29.76,NNW,331,0.0,0.0,93,0.00,,,0.00,134,Wunderground v.1.15,2013-09-26 12:59:00,
2013-09-26 09:02:00,61.0,58.7,29.76,NNW,331,0.0,0.0,92,0.00,,,0.00,118,Wunderground v.1.15,2013-09-26 13:02:00,
2013-09-26 09:04:00,61.1,58.8,29.76,NNW,331,0.0,0.0,92,0.00,,,0.00,120,Wunderground v.1.15,2013-09-26 13:04:00,
2013-09-26 09:05:00,61.3,59.0,29.76,NNW,331,0.0,0.0,92,0.00,,,0.00,104,Wunderground v.1.15,2013-09-26 13:05:00,
2013-09-26 09:06:00,61.4,59.1,29.76,NNW,331,0.0,0.0,92,0.00,,,0.00,127,Wunderground v.1.15,2013-09-26 13:06:00,
2013-09-26 09:07:00,61.5,58.8,29.76,NNW,331,0.0,0.0,91,0.00,,,0.00,114,Wunderground v.1.15,2013-09-26 13:07:00,
2013-09-26 09:09:00,61.6,58.9,29.76,North,5,0.0,0.0,91,0.00,,,0.00,104,Wunderground v.1.15,2013-09-26 13:09:00,
2013-09-26 09:12:00,61.8,58.8,29.76,North,360,0.0,0.0,90,0.00,,,0.00,93,Wunderground v.1.15,2013-09-26 13:12:00,
2013-09-26 09:14:00,62.0,59.0,29.76,North,360,0.0,0.0,90,0.00,,,0.00,91,Wunderground v.1.15,2013-09-26 13:14:00,
2013-09-26 09:16:00,62.1,59.1,29.77,North,360,0.0,0.0,90,0.00,,,0.00,93,Wunderground v.1.15,2013-09-26 13:16:00,
2013-09-26 09:17:00,62.2,59.2,29.76,North,360,0.0,0.0,90,0.00,,,0.00,93,Wunderground v.1.15,2013-09-26 13:17:00,
2013-09-26 09:18:00,62.3,59.3,29.76,North,360,0.0,0.0,90,0.00,,,0.00,93,Wunderground v.1.15,2013-09-26 13:18:00,
2013-09-26 09:19:00,62.3,59.3,29.77,North,360,0.0,0.0,90,0.00,,,0.00,95,Wunderground v.1.15,2013-09-26 13:19:00,
2013-09-26 09:22:00,62.5,59.2,29.77,North,360,0.0,0.0,89,0.00,,,0.00,97,Wunderground v.1.15,2013-09-26 13:22:00,
2013-09-26 09:23:00,62.5,58.9,29.77,North,360,0.0,0.0,88,0.00,,,0.00,97,Wunderground v.1.15,2013-09-26 13:23:00,
2013-09-26 09:25:00,62.6,59.0,29.77,North,360,0.0,0.0,88,0.00,,,0.00,98,Wunderground v.1.15,2013-09-26 13:25:00,
2013-09-26 09:27:00,62.7,59.1,29.77,North,360,0.0,0.0,88,0.00,,,0.00,102,Wunderground v.1.15,2013-09-26 13:27:00,
2013-09-26 09:29:00,62.8,59.2,29.77,North,360,0.0,0.0,88,0.00,,,0.00,104,Wunderground v.1.15,2013-09-26 13:29:00,
2013-09-26 09:34:00,63.1,59.2,29.77,North,360,0.0,0.0,87,0.00,,,0.00,109,Wunderground v.1.15,2013-09-26 13:34:00,
2013-09-26 09:35:00,63.1,59.2,29.77,North,360,0.0,0.0,87,0.00,,,0.00,111,Wunderground v.1.15,2013-09-26 13:35:00,
2013-09-26 09:36:00,63.2,59.3,29.77,North,360,0.0,0.0,87,0.00,,,0.00,111,Wunderground v.1.15,2013-09-26 13:36:00,
2013-09-26 09:37:00,63.2,59.3,29.77,North,360,0.0,0.0,87,0.00,,,0.00,111,Wunderground v.1.15,2013-09-26 13:37:00,
2013-09-26 09:39:00,63.3,59.0,29.77,North,360,0.0,0.0,86,0.00,,,0.00,114,Wunderground v.1.15,2013-09-26 13:39:00,
2013-09-26 09:41:00,63.4,59.1,29.78,North,360,0.0,0.0,86,0.00,,,0.00,120,Wunderground v.1.15,2013-09-26 13:41:00,
2013-09-26 09:42:00,63.5,59.2,29.77,North,360,0.0,0.0,86,0.00,,,0.00,121,Wunderground v.1.15,2013-09-26 13:42:00,
2013-09-26 09:43:00,63.5,59.2,29.78,North,360,0.0,0.0,86,0.00,,,0.00,123,Wunderground v.1.15,2013-09-26 13:43:00,
2013-09-26 09:45:00,63.6,59.3,29.78,North,360,0.0,0.0,86,0.00,,,0.00,125,Wunderground v.1.15,2013-09-26 13:45:00,
2013-09-26 09:48:00,63.7,59.4,29.78,North,360,0.0,0.0,86,0.00,,,0.00,137,Wunderground v.1.15,2013-09-26 13:48:00,
2013-09-26 09:50:00,63.8,59.2,29.78,North,360,0.0,0.0,85,0.00,,,0.00,144,Wunderground v.1.15,2013-09-26 13:50:00,
2013-09-26 09:51:00,63.9,59.3,29.78,North,360,0.0,0.0,85,0.00,,,0.00,149,Wunderground v.1.15,2013-09-26 13:51:00,
2013-09-26 09:53:00,64.0,59.4,29.78,North,360,0.0,0.0,85,0.00,,,0.00,155,Wunderground v.1.15,2013-09-26 13:53:00,
2013-09-26 09:56:00,64.2,59.6,29.78,NE,47,0.0,0.0,85,0.00,,,0.00,162,Wunderground v.1.15,2013-09-26 13:56:00,
2013-09-26 09:59:00,64.4,59.5,29.78,NNW,344,0.0,0.0,84,0.00,,,0.00,188,Wunderground v.1.15,2013-09-26 13:59:00,
2013-09-26 10:01:00,64.6,59.7,29.78,NNW,344,0.0,0.0,84,0.00,,,0.00,248,Wunderground v.1.15,2013-09-26 14:01:00,
2013-09-26 10:04:00,64.8,59.5,29.78,NE,34,0.0,0.0,83,0.00,,,0.00,221,Wunderground v.1.15,2013-09-26 14:04:00,
2013-09-26 10:08:00,65.3,60.3,29.78,NE,34,0.0,0.0,84,0.00,,,0.00,454,Wunderground v.1.15,2013-09-26 14:08:00,
2013-09-26 10:09:00,65.4,60.4,29.78,NE,34,0.0,0.0,84,0.00,,,0.00,288,Wunderground v.1.15,2013-09-26 14:09:00,
2013-09-26 10:10:00,65.6,60.3,29.78,NE,34,0.0,0.0,83,0.00,,,0.00,313,Wunderground v.1.15,2013-09-26 14:10:00,
2013-09-26 10:13:00,66.0,60.0,29.78,NE,34,0.0,0.0,81,0.00,,,0.00,183,Wunderground v.1.15,2013-09-26 14:13:00,
2013-09-26 10:14:00,66.1,59.7,29.78,NE,34,0.0,0.0,80,0.00,,,0.00,206,Wunderground v.1.15,2013-09-26 14:14:00,
2013-09-26 10:15:00,66.2,59.8,29.78,NE,34,0.0,0.0,80,0.00,,,0.00,260,Wunderground v.1.15,2013-09-26 14:15:00,
2013-09-26 10:16:00,66.2,59.8,29.78,North,360,0.0,0.0,80,0.00,,,0.00,260,Wunderground v.1.15,2013-09-26 14:16:00,
2013-09-26 10:17:00,66.3,59.9,29.78,North,360,0.0,0.0,80,0.00,,,0.00,636,Wunderground v.1.15,2013-09-26 14:17:00,
2013-09-26 10:20:00,66.6,59.9,29.78,NW,324,0.0,0.0,79,0.00,,,0.00,499,Wunderground v.1.15,2013-09-26 14:20:00,
2013-09-26 10:22:00,66.8,59.7,29.78,NW,326,0.0,0.0,78,0.00,,,0.00,410,Wunderground v.1.15,2013-09-26 14:22:00,
2013-09-26 10:25:00,67.2,59.7,29.78,NW,305,0.0,1.0,77,0.00,,,0.00,573,Wunderground v.1.15,2013-09-26 14:25:00,
2013-09-26 10:29:00,67.8,60.0,29.78,ESE,117,0.0,1.0,76,0.00,,,0.00,563,Wunderground v.1.15,2013-09-26 14:29:00,
2013-09-26 10:30:00,68.0,60.2,29.78,ESE,117,0.0,0.0,76,0.00,,,0.00,533,Wunderground v.1.15,2013-09-26 14:30:00,
2013-09-26 10:31:00,68.2,60.3,29.78,ESE,117,0.0,0.0,76,0.00,,,0.00,533,Wunderground v.1.15,2013-09-26 14:31:00,
2013-09-26 10:32:00,68.3,60.4,29.78,ESE,117,0.0,0.0,76,0.00,,,0.00,533,Wunderground v.1.15,2013-09-26 14:32:00,
2013-09-26 10:33:00,68.4,60.5,29.78,East,93,0.0,0.0,76,0.00,,,0.00,561,Wunderground v.1.15,2013-09-26 14:33:00,
2013-09-26 10:34:00,68.6,60.4,29.78,ENE,75,0.0,0.0,75,0.00,,,0.00,561,Wunderground v.1.15,2013-09-26 14:34:00,
2013-09-26 10:36:00,68.8,59.0,29.78,North,5,0.0,0.0,71,0.00,,,0.00,257,Wunderground v.1.15,2013-09-26 14:36:00,
2013-09-26 10:38:00,69.0,59.2,29.78,North,5,0.0,0.0,71,0.00,,,0.00,186,Wunderground v.1.15,2013-09-26 14:38:00,
2013-09-26 10:40:00,69.1,58.9,29.78,North,5,0.0,0.0,70,0.00,,,0.00,186,Wunderground v.1.15,2013-09-26 14:40:00,
2013-09-26 10:42:00,69.1,58.5,29.78,NNW,331,0.0,2.0,69,0.00,,,0.00,192,Wunderground v.1.15,2013-09-26 14:42:00,
2013-09-26 10:43:00,69.0,58.4,29.78,NNW,331,0.0,2.0,69,0.00,,,0.00,174,Wunderground v.1.15,2013-09-26 14:43:00,
2013-09-26 10:47:00,68.8,58.6,29.78,North,5,0.0,2.0,70,0.00,,,0.00,174,Wunderground v.1.15,2013-09-26 14:47:00,
2013-09-26 10:49:00,68.7,58.1,29.78,NE,49,0.0,2.0,69,0.00,,,0.00,253,Wunderground v.1.15,2013-09-26 14:49:00,
2013-09-26 10:50:00,68.7,58.5,29.78,North,360,0.0,0.0,70,0.00,,,0.00,253,Wunderground v.1.15,2013-09-26 14:50:00,
2013-09-26 10:51:00,68.7,58.5,29.78,NNW,329,0.0,0.0,70,0.00,,,0.00,367,Wunderground v.1.15,2013-09-26 14:51:00,
2013-09-26 10:54:00,68.6,58.4,29.78,NW,326,0.0,0.0,70,0.00,,,0.00,420,Wunderground v.1.15,2013-09-26 14:54:00,
2013-09-26 10:55:00,68.6,58.4,29.78,NNW,327,0.0,0.0,70,0.00,,,0.00,334,Wunderground v.1.15,2013-09-26 14:55:00,
2013-09-26 10:57:00,68.6,58.8,29.78,NNW,327,0.0,0.0,71,0.00,,,0.00,364,Wunderground v.1.15,2013-09-26 14:57:00,
2013-09-26 10:58:00,68.7,58.9,29.78,NW,323,0.0,0.0,71,0.00,,,0.00,301,Wunderground v.1.15,2013-09-26 14:58:00,
2013-09-26 11:00:00,68.8,59.0,29.78,NW,324,0.0,2.0,71,0.00,,,0.00,322,Wunderground v.1.15,2013-09-26 15:00:00,
2013-09-26 11:01:00,68.9,58.3,29.78,NW,320,0.0,2.0,69,0.00,,,0.00,232,Wunderground v.1.15,2013-09-26 15:01:00,
2013-09-26 11:04:00,69.0,58.8,29.78,NW,321,0.0,2.0,70,0.00,,,0.00,276,Wunderground v.1.15,2013-09-26 15:04:00,
2013-09-26 11:06:00,69.2,59.4,29.78,NW,322,0.0,2.0,71,0.00,,,0.00,221,Wunderground v.1.15,2013-09-26 15:06:00,
2013-09-26 11:07:00,69.2,59.4,29.78,NNW,327,0.0,2.0,71,0.00,,,0.00,221,Wunderground v.1.15,2013-09-26 15:07:00,
2013-09-26 11:10:00,69.5,59.3,29.78,NNE,17,0.0,0.0,70,0.00,,,0.00,206,Wunderground v.1.15,2013-09-26 15:10:00,
2013-09-26 11:11:00,69.5,58.9,29.78,NNE,24,0.0,0.0,69,0.00,,,0.00,206,Wunderground v.1.15,2013-09-26 15:11:00,
2013-09-26 11:12:00,69.6,58.6,29.78,NNW,348,0.0,0.0,68,0.00,,,0.00,213,Wunderground v.1.15,2013-09-26 15:12:00,
2013-09-26 11:16:00,69.7,57.8,29.78,NNW,337,0.0,3.0,66,0.00,,,0.00,183,Wunderground v.1.15,2013-09-26 15:16:00,
2013-09-26 11:17:00,69.7,57.8,29.78,North,360,0.0,3.0,66,0.00,,,0.00,188,Wunderground v.1.15,2013-09-26 15:17:00,
2013-09-26 11:18:00,69.7,57.8,29.78,NNE,17,0.0,3.0,66,0.00,,,0.00,188,Wunderground v.1.15,2013-09-26 15:18:00,
2013-09-26 11:23:00,69.8,58.3,29.78,NNE,17,0.0,0.0,67,0.00,,,0.00,160,Wunderground v.1.15,2013-09-26 15:23:00,
2013-09-26 11:25:00,69.9,57.6,29.78,NNE,17,0.0,0.0,65,0.00,,,0.00,165,Wunderground v.1.15,2013-09-26 15:25:00,
2013-09-26 11:28:00,70.2,58.3,29.78,NNE,17,0.0,0.0,66,0.00,,,0.00,200,Wunderground v.1.15,2013-09-26 15:28:00,
2013-09-26 11:32:00,70.6,59.1,29.78,NNE,17,0.0,0.0,67,0.00,,,0.00,211,Wunderground v.1.15,2013-09-26 15:32:00,
2013-09-26 11:36:00,71.3,58.5,29.78,NNE,24,0.0,0.0,64,0.00,,,0.00,221,Wunderground v.1.15,2013-09-26 15:36:00,
2013-09-26 11:37:00,71.5,59.1,29.78,NW,322,0.0,0.0,65,0.00,,,0.00,221,Wunderground v.1.15,2013-09-26 15:37:00,
2013-09-26 11:38:00,71.6,58.8,29.78,NW,322,0.0,0.0,64,0.00,,,0.00,225,Wunderground v.1.15,2013-09-26 15:38:00,
2013-09-26 11:41:00,72.0,58.7,29.78,East,97,0.0,0.0,63,0.00,,,0.00,221,Wunderground v.1.15,2013-09-26 15:41:00,
2013-09-26 11:42:00,72.0,59.6,29.78,SSE,149,0.0,1.0,65,0.00,,,0.00,221,Wunderground v.1.15,2013-09-26 15:42:00,
2013-09-26 11:43:00,72.2,59.3,29.78,NE,35,0.0,1.0,64,0.00,,,0.00,213,Wunderground v.1.15,2013-09-26 15:43:00,
2013-09-26 11:44:00,72.3,58.5,29.78,NNE,20,0.0,1.0,62,0.00,,,0.00,199,Wunderground v.1.15,2013-09-26 15:44:00,
2013-09-26 11:49:00,72.6,58.8,29.78,NNE,20,0.0,1.0,62,0.00,,,0.00,192,Wunderground v.1.15,2013-09-26 15:49:00,
2013-09-26 11:51:00,72.6,58.8,29.78,NNE,13,0.0,0.0,62,0.00,,,0.00,204,Wunderground v.1.15,2013-09-26 15:51:00,
2013-09-26 11:52:00,72.6,58.8,29.78,NNE,28,0.0,0.0,62,0.00,,,0.00,202,Wunderground v.1.15,2013-09-26 15:52:00,
2013-09-26 11:56:00,72.6,57.0,29.78,North,10,0.0,0.0,58,0.00,,,0.00,176,Wunderground v.1.15,2013-09-26 15:56:00,
2013-09-26 11:57:00,72.6,56.0,29.78,NNE,14,0.0,4.0,56,0.00,,,0.00,192,Wunderground v.1.15,2013-09-26 15:57:00,
2013-09-26 11:58:00,72.6,55.5,29.78,NNE,22,0.0,4.0,55,0.00,,,0.00,193,Wunderground v.1.15,2013-09-26 15:58:00,
2013-09-26 12:01:00,72.4,56.8,29.78,North,351,0.0,0.0,58,0.00,,,0.00,183,Wunderground v.1.15,2013-09-26 16:01:00,
2013-09-26 12:02:00,72.4,56.8,29.78,North,351,0.0,0.0,58,0.00,,,0.00,186,Wunderground v.1.15,2013-09-26 16:02:00,
2013-09-26 12:04:00,72.2,56.6,29.78,WNW,287,1.0,1.0,58,0.00,,,0.00,190,Wunderground v.1.15,2013-09-26 16:04:00,
2013-09-26 12:06:00,72.1,56.5,29.78,NE,37,1.0,3.0,58,0.00,,,0.00,188,Wunderground v.1.15,2013-09-26 16:06:00,
2013-09-26 12:07:00,72.0,56.4,29.78,North,10,1.0,3.0,58,0.00,,,0.00,193,Wunderground v.1.15,2013-09-26 16:07:00,
2013-09-26 12:10:00,71.8,57.2,29.78,NNE,22,1.0,1.0,60,0.00,,,0.00,190,Wunderground v.1.15,2013-09-26 16:10:00,
2013-09-26 12:12:00,71.9,58.2,29.78,East,86,1.0,1.0,62,0.00,,,0.00,179,Wunderground v.1.15,2013-09-26 16:12:00,
2013-09-26 12:13:00,72.0,58.7,29.78,SE,130,0.0,1.0,63,0.00,,,0.00,181,Wunderground v.1.15,2013-09-26 16:13:00,
2013-09-26 12:15:00,72.2,58.5,29.78,ENE,75,0.0,1.0,62,0.00,,,0.00,190,Wunderground v.1.15,2013-09-26 16:15:00,
2013-09-26 12:18:00,72.7,58.5,29.78,NE,36,0.0,1.0,61,0.00,,,0.00,188,Wunderground v.1.15,2013-09-26 16:18:00,
2013-09-26 12:20:00,73.0,57.8,29.78,SSE,147,0.0,0.0,59,0.00,,,0.00,174,Wunderground v.1.15,2013-09-26 16:20:00,
2013-09-26 12:21:00,73.1,57.9,29.78,East,95,0.0,0.0,59,0.00,,,0.00,172,Wunderground v.1.15,2013-09-26 16:21:00,
2013-09-26 12:25:00,73.4,58.2,29.78,NW,316,0.0,0.0,59,0.00,,,0.00,211,Wunderground v.1.15,2013-09-26 16:25:00,
2013-09-26 12:27:00,73.4,58.2,29.78,NNE,24,0.0,0.0,59,0.00,,,0.00,209,Wunderground v.1.15,2013-09-26 16:27:00,
2013-09-26 12:31:00,73.6,59.3,29.77,ENE,59,0.0,0.0,61,0.00,,,0.00,202,Wunderground v.1.15,2013-09-26 16:31:00,
2013-09-26 12:32:00,73.7,59.4,29.77,ENE,59,0.0,0.0,61,0.00,,,0.00,206,Wunderground v.1.15,2013-09-26 16:32:00,
2013-09-26 12:34:00,73.8,59.0,29.77,NNE,12,0.0,0.0,60,0.00,,,0.00,192,Wunderground v.1.15,2013-09-26 16:34:00,
2013-09-26 12:36:00,74.0,59.2,29.77,NNW,327,0.0,3.0,60,0.00,,,0.00,200,Wunderground v.1.15,2013-09-26 16:36:00,
2013-09-26 12:37:00,74.0,59.2,29.78,NNW,338,0.0,3.0,60,0.00,,,0.00,195,Wunderground v.1.15,2013-09-26 16:37:00,
2013-09-26 12:39:00,74.0,58.8,29.77,NNW,340,0.0,3.0,59,0.00,,,0.00,181,Wunderground v.1.15,2013-09-26 16:39:00,
2013-09-26 12:41:00,73.9,59.1,29.77,NNW,340,0.0,0.0,60,0.00,,,0.00,176,Wunderground v.1.15,2013-09-26 16:41:00,
2013-09-26 12:42:00,73.8,59.0,29.77,NNE,17,0.0,0.0,60,0.00,,,0.00,174,Wunderground v.1.15,2013-09-26 16:42:00,
2013-09-26 12:45:00,73.6,59.8,29.77,NE,36,0.0,0.0,62,0.00,,,0.00,174,Wunderground v.1.15,2013-09-26 16:45:00,
2013-09-26 12:46:00,73.6,59.8,29.77,NW,323,0.0,0.0,62,0.00,,,0.00,146,Wunderground v.1.15,2013-09-26 16:46:00,
2013-09-26 12:47:00,73.6,59.8,29.77,NW,323,0.0,0.0,62,0.00,,,0.00,135,Wunderground v.1.15,2013-09-26 16:47:00,
2013-09-26 12:49:00,73.6,59.8,29.77,NE,49,0.0,0.0,62,0.00,,,0.00,130,Wunderground v.1.15,2013-09-26 16:49:00,
2013-09-26 12:50:00,73.6,59.3,29.77,North,9,0.0,0.0,61,0.00,,,0.00,128,Wunderground v.1.15,2013-09-26 16:50:00,
2013-09-26 12:53:00,73.6,59.8,29.77,ENE,61,0.0,0.0,62,0.00,,,0.00,120,Wunderground v.1.15,2013-09-26 16:53:00,
2013-09-26 12:55:00,73.6,59.8,29.77,NW,316,0.0,0.0,62,0.00,,,0.00,114,Wunderground v.1.15,2013-09-26 16:55:00,
2013-09-26 12:57:00,73.5,59.7,29.77,NW,316,0.0,0.0,62,0.00,,,0.00,107,Wunderground v.1.15,2013-09-26 16:57:00,
2013-09-26 12:59:00,73.4,59.6,29.77,NW,317,0.0,1.0,62,0.00,,,0.00,104,Wunderground v.1.15,2013-09-26 16:59:00,
2013-09-26 13:00:00,73.3,59.5,29.77,North,360,0.0,0.0,62,0.00,,,0.00,107,Wunderground v.1.15,2013-09-26 17:00:00,
2013-09-26 13:01:00,73.2,58.9,29.77,NNW,327,0.0,0.0,61,0.00,,,0.00,111,Wunderground v.1.15,2013-09-26 17:01:00,
2013-09-26 13:05:00,73.0,59.7,29.77,ENE,65,0.0,0.0,63,0.00,,,0.00,118,Wunderground v.1.15,2013-09-26 17:05:00,
2013-09-26 13:06:00,72.9,59.6,29.77,ENE,65,0.0,0.0,63,0.00,,,0.00,109,Wunderground v.1.15,2013-09-26 17:06:00,
2013-09-26 13:10:00,72.8,58.1,29.77,ENE,65,0.0,0.0,60,0.00,,,0.00,113,Wunderground v.1.15,2013-09-26 17:10:00,
2013-09-26 13:11:00,72.8,57.6,29.77,ENE,64,0.0,0.0,59,0.00,,,0.00,111,Wunderground v.1.15,2013-09-26 17:11:00,
2013-09-26 13:12:00,72.8,57.2,29.77,ENE,64,0.0,0.0,58,0.00,,,0.00,111,Wunderground v.1.15,2013-09-26 17:12:00,
2013-09-26 13:16:00,73.0,58.8,29.77,SSE,150,0.0,0.0,61,0.00,,,0.00,107,Wunderground v.1.15,2013-09-26 17:16:00,
2013-09-26 13:17:00,73.0,59.7,29.77,SSE,150,0.0,0.0,63,0.00,,,0.00,120,Wunderground v.1.15,2013-09-26 17:17:00,
2013-09-26 13:18:00,73.1,57.9,29.77,ESE,110,0.0,0.0,59,0.00,,,0.00,127,Wunderground v.1.15,2013-09-26 17:18:00,
2013-09-26 13:22:00,73.4,57.7,29.76,SE,140,0.0,0.0,58,0.00,,,0.00,128,Wunderground v.1.15,2013-09-26 17:22:00,
2013-09-26 13:23:00,73.5,58.3,29.76,NE,55,0.0,0.0,59,0.00,,,0.00,121,Wunderground v.1.15,2013-09-26 17:23:00,
2013-09-26 13:24:00,73.5,58.3,29.76,NE,55,0.0,0.0,59,0.00,,,0.00,107,Wunderground v.1.15,2013-09-26 17:24:00,
2013-09-26 13:28:00,73.8,58.1,29.76,North,360,0.0,3.0,58,0.00,,,0.00,97,Wunderground v.1.15,2013-09-26 17:28:00,
2013-09-26 13:30:00,73.9,58.7,29.76,NNW,327,0.0,0.0,59,0.00,,,0.00,97,Wunderground v.1.15,2013-09-26 17:30:00,
2013-09-26 13:35:00,73.9,58.2,29.76,NNW,340,0.0,0.0,58,0.00,,,0.00,98,Wunderground v.1.15,2013-09-26 17:35:00,
2013-09-26 13:36:00,73.9,58.7,29.76,NNW,345,0.0,0.0,59,0.00,,,0.00,113,Wunderground v.1.15,2013-09-26 17:36:00,
2013-09-26 13:37:00,73.9,58.2,29.76,North,349,0.0,0.0,58,0.00,,,0.00,105,Wunderground v.1.15,2013-09-26 17:37:00,
2013-09-26 13:39:00,73.9,57.7,29.76,East,98,0.0,1.0,57,0.00,,,0.00,113,Wunderground v.1.15,2013-09-26 17:39:00,
2013-09-26 13:40:00,73.9,57.2,29.76,North,350,0.0,0.0,56,0.00,,,0.00,111,Wunderground v.1.15,2013-09-26 17:40:00,
2013-09-26 13:42:00,74.0,57.8,29.76,North,350,0.0,0.0,57,0.00,,,0.00,114,Wunderground v.1.15,2013-09-26 17:42:00,
2013-09-26 13:44:00,74.1,57.4,29.76,North,355,0.0,0.0,56,0.00,,,0.00,127,Wunderground v.1.15,2013-09-26 17:44:00,
2013-09-26 13:45:00,74.2,57.5,29.76,North,355,0.0,0.0,56,0.00,,,0.00,132,Wunderground v.1.15,2013-09-26 17:45:00,
2013-09-26 13:47:00,74.4,57.7,29.76,North,11,0.0,1.0,56,0.00,,,0.00,118,Wunderground v.1.15,2013-09-26 17:47:00,
2013-09-26 13:52:00,74.5,56.8,29.76,North,355,0.0,0.0,54,0.00,,,0.00,113,Wunderground v.1.15,2013-09-26 17:52:00,
2013-09-26 13:53:00,74.5,56.8,29.76,NNE,14,0.0,0.0,54,0.00,,,0.00,114,Wunderground v.1.15,2013-09-26 17:53:00,
2013-09-26 13:57:00,74.4,58.2,29.76,NE,44,0.0,0.0,57,0.00,,,0.00,116,Wunderground v.1.15,2013-09-26 17:57:00,
2013-09-26 13:58:00,74.4,58.2,29.76,NE,44,0.0,0.0,57,0.00,,,0.00,104,Wunderground v.1.15,2013-09-26 17:58:00,
2013-09-26 14:02:00,74.5,58.3,29.76,North,355,0.0,0.0,57,0.00,,,0.00,90,Wunderground v.1.15,2013-09-26 18:02:00,
2013-09-26 14:03:00,74.6,58.8,29.76,NNE,26,0.0,0.0,58,0.00,,,0.00,90,Wunderground v.1.15,2013-09-26 18:03:00,
2013-09-26 14:04:00,74.5,58.8,29.76,North,11,0.0,0.0,58,0.00,,,0.00,84,Wunderground v.1.15,2013-09-26 18:04:00,
2013-09-26 14:07:00,74.4,58.7,29.76,NNE,16,0.0,0.0,58,0.00,,,0.00,84,Wunderground v.1.15,2013-09-26 18:07:00,
2013-09-26 14:09:00,74.3,58.1,29.76,NW,321,0.0,0.0,57,0.00,,,0.00,86,Wunderground v.1.15,2013-09-26 18:09:00,
2013-09-26 14:10:00,74.2,58.0,29.76,NW,321,0.0,0.0,57,0.00,,,0.00,81,Wunderground v.1.15,2013-09-26 18:10:00,
2013-09-26 14:12:00,74.1,58.4,29.76,WNW,285,0.0,0.0,58,0.00,,,0.00,77,Wunderground v.1.15,2013-09-26 18:12:00,
2013-09-26 14:15:00,73.9,58.7,29.76,NNE,33,0.0,3.0,59,0.00,,,0.00,69,Wunderground v.1.15,2013-09-26 18:15:00,
2013-09-26 14:16:00,73.8,58.1,29.76,North,355,0.0,3.0,58,0.00,,,0.00,70,Wunderground v.1.15,2013-09-26 18:16:00,
2013-09-26 14:21:00,73.7,58.0,29.75,NNE,25,0.0,4.0,58,0.00,,,0.00,62,Wunderground v.1.15,2013-09-26 18:21:00,
2013-09-26 14:22:00,73.7,58.5,29.75,SE,134,0.0,4.0,59,0.00,,,0.00,60,Wunderground v.1.15,2013-09-26 18:22:00,
2013-09-26 14:25:00,73.8,58.6,29.75,East,90,0.0,4.0,59,0.00,,,0.00,60,Wunderground v.1.15,2013-09-26 18:25:00,
2013-09-26 14:26:00,73.9,58.7,29.75,NE,49,0.0,4.0,59,0.00,,,0.00,60,Wunderground v.1.15,2013-09-26 18:26:00,
2013-09-26 14:27:00,73.9,58.7,29.75,NE,54,0.0,4.0,59,0.00,,,0.00,60,Wunderground v.1.15,2013-09-26 18:27:00,
2013-09-26 14:28:00,74.0,58.8,29.75,NNW,348,0.0,4.0,59,0.00,,,0.00,60,Wunderground v.1.15,2013-09-26 18:28:00,
2013-09-26 14:31:00,74.2,58.9,29.75,East,92,0.0,2.0,59,0.00,,,0.00,63,Wunderground v.1.15,2013-09-26 18:31:00,
2013-09-26 14:33:00,74.4,58.7,29.75,NNW,331,0.0,2.0,58,0.00,,,0.00,83,Wunderground v.1.15,2013-09-26 18:33:00,
2013-09-26 14:34:00,74.4,59.1,29.75,SE,128,0.0,2.0,59,0.00,,,0.00,83,Wunderground v.1.15,2013-09-26 18:34:00,
2013-09-26 14:35:00,74.5,59.2,29.75,ESE,104,0.0,2.0,59,0.00,,,0.00,81,Wunderground v.1.15,2013-09-26 18:35:00,
2013-09-26 14:36:00,74.6,59.3,29.75,NNW,330,0.0,2.0,59,0.00,,,0.00,93,Wunderground v.1.15,2013-09-26 18:36:00,
2013-09-26 14:39:00,74.9,59.6,29.75,NNW,329,0.0,2.0,59,0.00,,,0.00,130,Wunderground v.1.15,2013-09-26 18:39:00,
2013-09-26 14:42:00,75.0,60.2,29.75,NW,311,0.0,0.0,60,0.00,,,0.00,102,Wunderground v.1.15,2013-09-26 18:42:00,
2013-09-26 14:47:00,75.0,59.7,29.75,North,5,0.0,1.0,59,0.00,,,0.00,39,Wunderground v.1.15,2013-09-26 18:47:00,
2013-09-26 14:51:00,74.6,58.8,29.76,North,355,0.0,0.0,58,0.00,,,0.00,98,Wunderground v.1.15,2013-09-26 18:51:00,
2013-09-26 14:52:00,74.4,58.7,29.76,North,355,0.0,0.0,58,0.00,,,0.00,76,Wunderground v.1.15,2013-09-26 18:52:00,
2013-09-26 14:55:00,74.2,59.4,29.75,East,101,0.0,0.0,60,0.00,,,0.00,114,Wunderground v.1.15,2013-09-26 18:55:00,
2013-09-26 14:58:00,74.2,59.4,29.75,East,101,0.0,0.0,60,0.00,,,0.00,155,Wunderground v.1.15,2013-09-26 18:58:00,
2013-09-26 15:01:00,74.2,59.4,29.75,NE,38,0.0,0.0,60,0.00,,,0.00,221,Wunderground v.1.15,2013-09-26 19:01:00,
2013-09-26 15:04:00,74.3,58.6,29.75,NE,46,0.0,2.0,58,0.00,,,0.00,26,Wunderground v.1.15,2013-09-26 19:04:00,
2013-09-26 15:05:00,74.4,58.2,29.75,NNE,13,0.0,2.0,57,0.00,,,0.00,90,Wunderground v.1.15,2013-09-26 19:05:00,
2013-09-26 15:06:00,74.4,58.2,29.75,NNE,13,0.0,2.0,57,0.00,,,0.00,49,Wunderground v.1.15,2013-09-26 19:06:00,
2013-09-26 15:08:00,74.4,57.7,29.75,West,271,0.0,2.0,56,0.00,,,0.00,30,Wunderground v.1.15,2013-09-26 19:08:00,
2013-09-26 15:10:00,74.5,57.8,29.75,NNE,32,0.0,0.0,56,0.00,,,0.00,84,Wunderground v.1.15,2013-09-26 19:10:00,
2013-09-26 15:11:00,74.5,58.3,29.75,NNE,32,0.0,0.0,57,0.00,,,0.00,84,Wunderground v.1.15,2013-09-26 19:11:00,
2013-09-26 15:14:00,74.6,58.4,29.75,North,355,0.0,0.0,57,0.00,,,0.00,72,Wunderground v.1.15,2013-09-26 19:14:00,
2013-09-26 15:16:00,74.7,58.5,29.75,North,355,0.0,0.0,57,0.00,,,0.00,141,Wunderground v.1.15,2013-09-26 19:16:00,
2013-09-26 15:17:00,74.7,58.5,29.75,NNW,329,0.0,0.0,57,0.00,,,0.00,151,Wunderground v.1.15,2013-09-26 19:17:00,
2013-09-26 15:20:00,74.8,59.0,29.75,ENE,63,0.0,0.0,58,0.00,,,0.00,116,Wunderground v.1.15,2013-09-26 19:20:00,
2013-09-26 15:21:00,74.9,58.6,29.75,ENE,63,0.0,0.0,57,0.00,,,0.00,178,Wunderground v.1.15,2013-09-26 19:21:00,
2013-09-26 15:22:00,74.9,59.1,29.76,ENE,63,0.0,0.0,58,0.00,,,0.00,146,Wunderground v.1.15,2013-09-26 19:22:00,
2013-09-26 15:25:00,74.9,58.6,29.75,ENE,63,0.0,0.0,57,0.00,,,0.00,98,Wunderground v.1.15,2013-09-26 19:25:00,
2013-09-26 15:27:00,74.9,58.6,29.75,ENE,63,0.0,0.0,57,0.00,,,0.00,53,Wunderground v.1.15,2013-09-26 19:27:00,
2013-09-26 15:32:00,74.8,58.1,29.75,NNE,19,0.0,0.0,56,0.00,,,0.00,51,Wunderground v.1.15,2013-09-26 19:32:00,
2013-09-26 15:33:00,74.8,58.1,29.75,NNW,327,0.0,0.0,56,0.00,,,0.00,49,Wunderground v.1.15,2013-09-26 19:33:00,
2013-09-26 15:38:00,75.1,57.3,29.75,NE,42,0.0,0.0,54,0.00,,,0.00,56,Wunderground v.1.15,2013-09-26 19:38:00,
2013-09-26 15:39:00,75.1,57.3,29.75,NE,42,0.0,0.0,54,0.00,,,0.00,56,Wunderground v.1.15,2013-09-26 19:39:00,
2013-09-26 15:44:00,75.2,56.9,29.75,NNW,329,0.0,0.0,53,0.00,,,0.00,53,Wunderground v.1.15,2013-09-26 19:44:00,
2013-09-26 15:46:00,75.2,56.9,29.75,East,100,0.0,1.0,53,0.00,,,0.00,47,Wunderground v.1.15,2013-09-26 19:46:00,
2013-09-26 15:49:00,75.2,56.9,29.75,North,10,0.0,1.0,53,0.00,,,0.00,51,Wunderground v.1.15,2013-09-26 19:49:00,
2013-09-26 15:50:00,75.2,56.4,29.75,NW,309,0.0,0.0,52,0.00,,,0.00,54,Wunderground v.1.15,2013-09-26 19:50:00,
2013-09-26 15:51:00,75.1,56.8,29.75,NW,321,0.0,0.0,53,0.00,,,0.00,54,Wunderground v.1.15,2013-09-26 19:51:00,
2013-09-26 15:54:00,75.1,56.8,29.75,North,360,0.0,0.0,53,0.00,,,0.00,46,Wunderground v.1.15,2013-09-26 19:54:00,
2013-09-26 15:55:00,75.1,56.8,29.75,NNW,342,0.0,0.0,53,0.00,,,0.00,46,Wunderground v.1.15,2013-09-26 19:55:00,
2013-09-26 15:56:00,75.1,56.3,29.75,NNE,22,0.0,3.0,52,0.00,,,0.00,54,Wunderground v.1.15,2013-09-26 19:56:00,
2013-09-26 16:00:00,75.1,56.3,29.75,NNW,344,0.0,3.0,52,0.00,,,0.00,49,Wunderground v.1.15,2013-09-26 20:00:00,
2013-09-26 16:03:00,75.0,56.2,29.75,NE,41,0.0,3.0,52,0.00,,,0.00,54,Wunderground v.1.15,2013-09-26 20:03:00,
2013-09-26 16:05:00,75.0,56.2,29.75,North,355,0.0,3.0,52,0.00,,,0.00,51,Wunderground v.1.15,2013-09-26 20:05:00,
2013-09-26 16:07:00,75.0,56.7,29.75,NNW,329,0.0,3.0,53,0.00,,,0.00,49,Wunderground v.1.15,2013-09-26 20:07:00,
2013-09-26 16:08:00,75.0,56.7,29.75,North,11,0.0,3.0,53,0.00,,,0.00,51,Wunderground v.1.15,2013-09-26 20:08:00,
2013-09-26 16:10:00,75.0,57.7,29.75,North,11,0.0,3.0,55,0.00,,,0.00,54,Wunderground v.1.15,2013-09-26 20:10:00,
2013-09-26 16:12:00,75.0,57.2,29.75,NW,320,0.0,3.0,54,0.00,,,0.00,51,Wunderground v.1.15,2013-09-26 20:12:00,
2013-09-26 16:13:00,75.0,56.7,29.75,East,81,0.0,3.0,53,0.00,,,0.00,49,Wunderground v.1.15,2013-09-26 20:13:00,
2013-09-26 16:14:00,75.1,57.3,29.75,ENE,68,0.0,3.0,54,0.00,,,0.00,47,Wunderground v.1.15,2013-09-26 20:14:00,
2013-09-26 16:16:00,75.1,57.3,29.75,North,360,0.0,3.0,54,0.00,,,0.00,47,Wunderground v.1.15,2013-09-26 20:16:00,
2013-09-26 16:18:00,75.2,56.4,29.75,NW,323,0.0,3.0,52,0.00,,,0.00,47,Wunderground v.1.15,2013-09-26 20:18:00,
2013-09-26 16:20:00,75.1,55.7,29.75,NE,49,0.0,3.0,51,0.00,,,0.00,44,Wunderground v.1.15,2013-09-26 20:20:00,
2013-09-26 16:22:00,75.1,56.3,29.75,NNE,17,0.0,3.0,52,0.00,,,0.00,44,Wunderground v.1.15,2013-09-26 20:22:00,
2013-09-26 16:24:00,75.1,56.3,29.75,North,355,0.0,3.0,52,0.00,,,0.00,42,Wunderground v.1.15,2013-09-26 20:24:00,
2013-09-26 16:25:00,75.1,55.7,29.75,North,355,0.0,3.0,51,0.00,,,0.00,42,Wunderground v.1.15,2013-09-26 20:25:00,
2013-09-26 16:26:00,75.0,56.2,29.75,North,349,0.0,3.0,52,0.00,,,0.00,42,Wunderground v.1.15,2013-09-26 20:26:00,
2013-09-26 16:29:00,75.0,56.2,29.75,NW,321,0.0,3.0,52,0.00,,,0.00,42,Wunderground v.1.15,2013-09-26 20:29:00,
2013-09-26 16:31:00,74.9,56.1,29.75,NW,321,0.0,3.0,52,0.00,,,0.00,42,Wunderground v.1.15,2013-09-26 20:31:00,
2013-09-26 16:34:00,74.9,56.1,29.75,North,9,0.0,3.0,52,0.00,,,0.00,40,Wunderground v.1.15,2013-09-26 20:34:00,
2013-09-26 16:37:00,74.8,55.5,29.75,North,349,0.0,3.0,51,0.00,,,0.00,40,Wunderground v.1.15,2013-09-26 20:37:00,
2013-09-26 16:39:00,74.7,55.9,29.76,NNW,344,0.0,3.0,52,0.00,,,0.00,40,Wunderground v.1.15,2013-09-26 20:39:00,
2013-09-26 16:42:00,74.7,54.3,29.75,NNE,17,0.0,3.0,49,0.00,,,0.00,39,Wunderground v.1.15,2013-09-26 20:42:00,
2013-09-26 16:44:00,74.6,53.6,29.75,NE,53,0.0,3.0,48,0.00,,,0.00,39,Wunderground v.1.15,2013-09-26 20:44:00,
2013-09-26 16:47:00,74.6,53.6,29.75,North,9,0.0,3.0,48,0.00,,,0.00,40,Wunderground v.1.15,2013-09-26 20:47:00,
2013-09-26 16:48:00,74.6,53.6,29.75,North,5,0.0,3.0,48,0.00,,,0.00,40,Wunderground v.1.15,2013-09-26 20:48:00,
2013-09-26 16:49:00,74.6,54.2,29.76,NNW,333,0.0,3.0,49,0.00,,,0.00,49,Wunderground v.1.15,2013-09-26 20:49:00,
2013-09-26 16:53:00,74.6,53.6,29.76,ENE,71,0.0,3.0,48,0.00,,,0.00,44,Wunderground v.1.15,2013-09-26 20:53:00,
2013-09-26 16:54:00,74.6,53.6,29.76,North,5,0.0,3.0,48,0.00,,,0.00,44,Wunderground v.1.15,2013-09-26 20:54:00,
2013-09-26 16:57:00,74.6,53.0,29.76,North,5,0.0,3.0,47,0.00,,,0.00,69,Wunderground v.1.15,2013-09-26 20:57:00,
2013-09-26 16:59:00,74.5,53.5,29.76,NNE,18,0.0,3.0,48,0.00,,,0.00,202,Wunderground v.1.15,2013-09-26 20:59:00,
2013-09-26 17:00:00,74.5,53.5,29.76,North,5,0.0,3.0,48,0.00,,,0.00,165,Wunderground v.1.15,2013-09-26 21:00:00,
2013-09-26 17:04:00,74.5,54.1,29.76,North,355,0.0,3.0,49,0.00,,,0.00,188,Wunderground v.1.15,2013-09-26 21:04:00,
2013-09-26 17:06:00,74.5,54.6,29.76,East,98,0.0,3.0,50,0.00,,,0.00,49,Wunderground v.1.15,2013-09-26 21:06:00,
2013-09-26 17:08:00,74.5,54.6,29.76,WSW,253,0.0,3.0,50,0.00,,,0.00,148,Wunderground v.1.15,2013-09-26 21:08:00,
2013-09-26 17:09:00,74.4,54.5,29.76,NNW,343,0.0,3.0,50,0.00,,,0.00,102,Wunderground v.1.15,2013-09-26 21:09:00,
2013-09-26 17:11:00,74.4,55.1,29.76,ESE,111,0.0,3.0,51,0.00,,,0.00,95,Wunderground v.1.15,2013-09-26 21:11:00,
2013-09-26 17:14:00,74.3,55.5,29.76,ESE,111,0.0,3.0,52,0.00,,,0.00,53,Wunderground v.1.15,2013-09-26 21:14:00,
2013-09-26 17:15:00,74.4,55.6,29.76,East,83,0.0,3.0,52,0.00,,,0.00,42,Wunderground v.1.15,2013-09-26 21:15:00,
2013-09-26 17:17:00,74.4,55.6,29.77,NNE,23,0.0,3.0,52,0.00,,,0.00,40,Wunderground v.1.15,2013-09-26 21:17:00,
2013-09-26 17:20:00,74.2,55.4,29.77,North,355,0.0,3.0,52,0.00,,,0.00,39,Wunderground v.1.15,2013-09-26 21:20:00,
2013-09-26 17:23:00,74.1,55.3,29.77,North,355,0.0,3.0,52,0.00,,,0.00,39,Wunderground v.1.15,2013-09-26 21:23:00,
2013-09-26 17:25:00,74.0,55.8,29.76,NNW,344,0.0,3.0,53,0.00,,,0.00,40,Wunderground v.1.15,2013-09-26 21:25:00,
2013-09-26 17:28:00,74.0,56.3,29.76,NNE,26,0.0,3.0,54,0.00,,,0.00,39,Wunderground v.1.15,2013-09-26 21:28:00,
2013-09-26 17:30:00,74.0,56.3,29.77,NNE,26,0.0,3.0,54,0.00,,,0.00,37,Wunderground v.1.15,2013-09-26 21:30:00,
2013-09-26 17:34:00,73.9,56.2,29.77,NNE,20,1.0,3.0,54,0.00,,,0.00,35,Wunderground v.1.15,2013-09-26 21:34:00,
2013-09-26 17:35:00,73.9,56.2,29.77,North,360,1.0,3.0,54,0.00,,,0.00,33,Wunderground v.1.15,2013-09-26 21:35:00,
2013-09-26 17:38:00,73.8,56.1,29.77,North,360,1.0,5.0,54,0.00,,,0.00,33,Wunderground v.1.15,2013-09-26 21:38:00,
2013-09-26 17:41:00,73.8,56.1,29.77,NNE,15,1.0,3.0,54,0.00,,,0.00,30,Wunderground v.1.15,2013-09-26 21:41:00,
2013-09-26 17:42:00,73.8,56.1,29.77,North,5,1.0,3.0,54,0.00,,,0.00,28,Wunderground v.1.15,2013-09-26 21:42:00,
2013-09-26 17:43:00,73.7,56.0,29.77,North,5,1.0,3.0,54,0.00,,,0.00,28,Wunderground v.1.15,2013-09-26 21:43:00,
2013-09-26 17:47:00,73.5,56.3,29.77,NNE,15,0.0,3.0,55,0.00,,,0.00,23,Wunderground v.1.15,2013-09-26 21:47:00,
2013-09-26 17:48:00,73.5,56.3,29.77,North,355,0.0,3.0,55,0.00,,,0.00,26,Wunderground v.1.15,2013-09-26 21:48:00,
2013-09-26 17:50:00,73.4,56.2,29.77,North,9,0.0,3.0,55,0.00,,,0.00,26,Wunderground v.1.15,2013-09-26 21:50:00,
2013-09-26 17:53:00,73.3,56.7,29.77,North,9,0.0,3.0,56,0.00,,,0.00,25,Wunderground v.1.15,2013-09-26 21:53:00,
2013-09-26 17:56:00,73.2,56.6,29.77,North,9,0.0,3.0,56,0.00,,,0.00,21,Wunderground v.1.15,2013-09-26 21:56:00,
2013-09-26 17:58:00,73.1,56.5,29.77,North,9,0.0,3.0,56,0.00,,,0.00,21,Wunderground v.1.15,2013-09-26 21:58:00,
2013-09-26 17:59:00,73.1,56.5,29.77,North,9,0.0,3.0,56,0.00,,,0.00,21,Wunderground v.1.15,2013-09-26 21:59:00,
2013-09-26 18:02:00,73.0,56.4,29.77,North,9,0.0,3.0,56,0.00,,,0.00,19,Wunderground v.1.15,2013-09-26 22:02:00,
2013-09-26 18:03:00,73.0,56.4,29.77,North,9,0.0,3.0,56,0.00,,,0.00,19,Wunderground v.1.15,2013-09-26 22:03:00,
2013-09-26 18:04:00,73.0,56.4,29.77,NNW,327,0.0,3.0,56,0.00,,,0.00,19,Wunderground v.1.15,2013-09-26 22:04:00,
2013-09-26 18:06:00,72.9,56.3,29.77,NNW,332,0.0,3.0,56,0.00,,,0.00,19,Wunderground v.1.15,2013-09-26 22:06:00,
2013-09-26 18:07:00,72.9,56.3,29.77,NNW,332,0.0,3.0,56,0.00,,,0.00,19,Wunderground v.1.15,2013-09-26 22:07:00,
2013-09-26 18:08:00,72.8,56.2,29.77,NW,325,0.0,3.0,56,0.00,,,0.00,19,Wunderground v.1.15,2013-09-26 22:08:00,
2013-09-26 18:12:00,72.8,56.7,29.77,ENE,64,0.0,3.0,57,0.00,,,0.00,16,Wunderground v.1.15,2013-09-26 22:12:00,
2013-09-26 18:13:00,72.8,56.7,29.78,ENE,64,0.0,3.0,57,0.00,,,0.00,16,Wunderground v.1.15,2013-09-26 22:13:00,
2013-09-26 18:15:00,72.8,56.7,29.77,ENE,64,0.0,3.0,57,0.00,,,0.00,16,Wunderground v.1.15,2013-09-26 22:15:00,
2013-09-26 18:17:00,72.7,57.1,29.77,ENE,64,0.0,3.0,58,0.00,,,0.00,16,Wunderground v.1.15,2013-09-26 22:17:00,
2013-09-26 18:20:00,72.6,57.0,29.77,ENE,64,0.0,3.0,58,0.00,,,0.00,14,Wunderground v.1.15,2013-09-26 22:20:00,
2013-09-26 18:23:00,72.5,56.9,29.78,ENE,64,0.0,3.0,58,0.00,,,0.00,12,Wunderground v.1.15,2013-09-26 22:23:00,
2013-09-26 18:25:00,72.4,57.3,29.78,ENE,64,0.0,3.0,59,0.00,,,0.00,12,Wunderground v.1.15,2013-09-26 22:25:00,
2013-09-26 18:28:00,72.3,57.2,29.78,ENE,64,0.0,3.0,59,0.00,,,0.00,11,Wunderground v.1.15,2013-09-26 22:28:00,
2013-09-26 18:29:00,72.2,57.1,29.78,ENE,64,0.0,3.0,59,0.00,,,0.00,9,Wunderground v.1.15,2013-09-26 22:29:00,
2013-09-26 18:30:00,72.2,57.1,29.78,ENE,64,0.0,3.0,59,0.00,,,0.00,9,Wunderground v.1.15,2013-09-26 22:30:00,
2013-09-26 18:34:00,71.9,57.3,29.78,NE,56,0.0,3.0,60,0.00,,,0.00,7,Wunderground v.1.15,2013-09-26 22:34:00,
2013-09-26 18:35:00,71.9,57.3,29.78,NE,56,0.0,3.0,60,0.00,,,0.00,7,Wunderground v.1.15,2013-09-26 22:35:00,
2013-09-26 18:38:00,71.7,57.1,29.78,North,9,0.0,3.0,60,0.00,,,0.00,7,Wunderground v.1.15,2013-09-26 22:38:00,
2013-09-26 18:40:00,71.5,57.3,29.78,North,9,0.0,3.0,61,0.00,,,0.00,5,Wunderground v.1.15,2013-09-26 22:40:00,
2013-09-26 18:44:00,71.3,57.2,29.78,North,9,0.0,3.0,61,0.00,,,0.00,5,Wunderground v.1.15,2013-09-26 22:44:00,
2013-09-26 18:45:00,71.2,57.5,29.78,North,9,0.0,3.0,62,0.00,,,0.00,5,Wunderground v.1.15,2013-09-26 22:45:00,
2013-09-26 18:50:00,70.9,57.2,29.78,North,9,0.0,3.0,62,0.00,,,0.00,0,Wunderground v.1.15,2013-09-26 22:50:00,
2013-09-26 18:53:00,70.8,57.6,29.79,North,9,0.0,3.0,63,0.00,,,0.00,0,Wunderground v.1.15,2013-09-26 22:53:00,
2013-09-26 18:55:00,70.6,57.4,29.79,North,9,0.0,3.0,63,0.00,,,0.00,0,Wunderground v.1.15,2013-09-26 22:55:00,
2013-09-26 18:56:00,70.6,57.4,29.79,North,9,0.0,3.0,63,0.00,,,0.00,0,Wunderground v.1.15,2013-09-26 22:56:00,
2013-09-26 18:58:00,70.5,57.3,29.79,North,9,0.0,3.0,63,0.00,,,0.00,0,Wunderground v.1.15,2013-09-26 22:58:00,
2013-09-26 19:01:00,70.3,57.5,29.79,North,9,0.0,3.0,64,0.00,,,0.00,0,Wunderground v.1.15,2013-09-26 23:01:00,
2013-09-26 19:02:00,70.3,57.5,29.79,North,9,0.0,3.0,64,0.00,,,0.00,0,Wunderground v.1.15,2013-09-26 23:02:00,
2013-09-26 19:03:00,70.2,57.4,29.79,North,9,0.0,3.0,64,0.00,,,0.00,0,Wunderground v.1.15,2013-09-26 23:03:00,
2013-09-26 19:04:00,70.1,57.4,29.79,North,9,0.0,3.0,64,0.00,,,0.00,0,Wunderground v.1.15,2013-09-26 23:04:00,
2013-09-26 19:08:00,69.9,57.6,29.79,North,9,0.0,3.0,65,0.00,,,0.00,0,Wunderground v.1.15,2013-09-26 23:08:00,
2013-09-26 19:09:00,69.9,57.6,29.79,North,9,0.0,3.0,65,0.00,,,0.00,0,Wunderground v.1.15,2013-09-26 23:09:00,
2013-09-26 19:11:00,69.8,57.5,29.79,North,9,0.0,3.0,65,0.00,,,0.00,0,Wunderground v.1.15,2013-09-26 23:11:00,
2013-09-26 19:12:00,69.7,57.4,29.79,North,9,0.0,3.0,65,0.00,,,0.00,0,Wunderground v.1.15,2013-09-26 23:12:00,
2013-09-26 19:13:00,69.6,57.3,29.79,North,9,0.0,3.0,65,0.00,,,0.00,0,Wunderground v.1.15,2013-09-26 23:13:00,
2013-09-26 19:16:00,69.4,57.5,29.79,North,9,0.0,3.0,66,0.00,,,0.00,0,Wunderground v.1.15,2013-09-26 23:16:00,
2013-09-26 19:18:00,69.2,57.4,29.79,North,9,0.0,3.0,66,0.00,,,0.00,0,Wunderground v.1.15,2013-09-26 23:18:00,
2013-09-26 19:19:00,69.1,57.3,29.79,North,9,0.0,3.0,66,0.00,,,0.00,0,Wunderground v.1.15,2013-09-26 23:19:00,
2013-09-26 19:20:00,69.1,57.3,29.79,North,9,0.0,3.0,66,0.00,,,0.00,0,Wunderground v.1.15,2013-09-26 23:20:00,
2013-09-26 19:21:00,69.0,57.6,29.79,North,9,0.0,3.0,67,0.00,,,0.00,0,Wunderground v.1.15,2013-09-26 23:21:00,
2013-09-26 19:24:00,68.9,57.5,29.79,North,9,0.0,3.0,67,0.00,,,0.00,0,Wunderground v.1.15,2013-09-26 23:24:00,
2013-09-26 19:25:00,68.8,57.4,29.79,North,9,0.0,3.0,67,0.00,,,0.00,0,Wunderground v.1.15,2013-09-26 23:25:00,
2013-09-26 19:26:00,68.8,57.4,29.79,North,9,0.0,3.0,67,0.00,,,0.00,0,Wunderground v.1.15,2013-09-26 23:26:00,
2013-09-26 19:30:00,68.6,57.6,29.80,North,9,0.0,3.0,68,0.00,,,0.00,0,Wunderground v.1.15,2013-09-26 23:30:00,
2013-09-26 19:32:00,68.5,57.5,29.79,North,9,0.0,3.0,68,0.00,,,0.00,0,Wunderground v.1.15,2013-09-26 23:32:00,
2013-09-26 19:34:00,68.4,57.8,29.80,North,9,0.0,3.0,69,0.00,,,0.00,0,Wunderground v.1.15,2013-09-26 23:34:00,
2013-09-26 19:35:00,68.3,57.7,29.80,North,9,0.0,3.0,69,0.00,,,0.00,0,Wunderground v.1.15,2013-09-26 23:35:00,
2013-09-26 19:37:00,68.2,58.0,29.80,North,9,0.0,3.0,70,0.00,,,0.00,0,Wunderground v.1.15,2013-09-26 23:37:00,
2013-09-26 19:39:00,68.0,57.8,29.80,North,9,0.0,3.0,70,0.00,,,0.00,0,Wunderground v.1.15,2013-09-26 23:39:00,
2013-09-26 19:41:00,67.8,57.7,29.80,North,9,0.0,3.0,70,0.00,,,0.00,0,Wunderground v.1.15,2013-09-26 23:41:00,
2013-09-26 19:42:00,67.7,58.0,29.80,North,9,0.0,3.0,71,0.00,,,0.00,0,Wunderground v.1.15,2013-09-26 23:42:00,
2013-09-26 19:44:00,67.5,57.8,29.80,North,9,0.0,3.0,71,0.00,,,0.00,0,Wunderground v.1.15,2013-09-26 23:44:00,
2013-09-26 19:46:00,67.3,57.6,29.80,North,9,0.0,3.0,71,0.00,,,0.00,0,Wunderground v.1.15,2013-09-26 23:46:00,
2013-09-26 19:48:00,67.1,57.8,29.80,North,9,0.0,3.0,72,0.00,,,0.00,0,Wunderground v.1.15,2013-09-26 23:48:00,
2013-09-26 19:49:00,67.1,57.8,29.80,North,9,0.0,3.0,72,0.00,,,0.00,0,Wunderground v.1.15,2013-09-26 23:49:00,
2013-09-26 19:51:00,66.9,57.6,29.80,North,9,0.0,3.0,72,0.00,,,0.00,0,Wunderground v.1.15,2013-09-26 23:51:00,
2013-09-26 19:53:00,66.8,57.5,29.80,North,9,0.0,3.0,72,0.00,,,0.00,0,Wunderground v.1.15,2013-09-26 23:53:00,
2013-09-26 19:56:00,66.6,57.3,29.80,North,9,0.0,3.0,72,0.00,,,0.00,0,Wunderground v.1.15,2013-09-26 23:56:00,
2013-09-26 19:58:00,66.5,57.2,29.80,North,9,0.0,3.0,72,0.00,,,0.00,0,Wunderground v.1.15,2013-09-26 23:58:00,
2013-09-26 19:59:00,66.5,57.2,29.81,North,9,0.0,3.0,72,0.00,,,0.00,0,Wunderground v.1.15,2013-09-26 23:59:00,
2013-09-26 20:02:00,66.3,57.0,29.81,North,9,0.0,3.0,72,0.00,,,0.00,0,Wunderground v.1.15,2013-09-27 00:02:00,
2013-09-26 20:04:00,66.3,57.4,29.81,North,9,0.0,3.0,73,0.00,,,0.00,0,Wunderground v.1.15,2013-09-27 00:04:00,
2013-09-26 20:10:00,66.1,57.2,29.81,North,9,0.0,3.0,73,0.00,,,0.00,0,Wunderground v.1.15,2013-09-27 00:10:00,
2013-09-26 20:11:00,66.1,57.2,29.81,North,9,0.0,3.0,73,0.00,,,0.00,0,Wunderground v.1.15,2013-09-27 00:11:00,
2013-09-26 20:14:00,66.0,57.1,29.81,North,9,0.0,3.0,73,0.00,,,0.00,0,Wunderground v.1.15,2013-09-27 00:14:00,
2013-09-26 20:15:00,66.0,57.1,29.81,North,9,0.0,3.0,73,0.00,,,0.00,0,Wunderground v.1.15,2013-09-27 00:15:00,
2013-09-26 20:16:00,65.9,57.4,29.81,North,9,0.0,3.0,74,0.00,,,0.00,0,Wunderground v.1.15,2013-09-27 00:16:00,
2013-09-26 20:19:00,65.9,57.0,29.81,North,9,0.0,3.0,73,0.00,,,0.00,0,Wunderground v.1.15,2013-09-27 00:19:00,
2013-09-26 20:21:00,65.8,56.9,29.81,North,9,0.0,3.0,73,0.00,,,0.00,0,Wunderground v.1.15,2013-09-27 00:21:00,
2013-09-26 20:22:00,65.8,56.9,29.81,North,9,0.0,3.0,73,0.00,,,0.00,0,Wunderground v.1.15,2013-09-27 00:22:00,
2013-09-26 20:26:00,65.7,56.8,29.81,North,9,0.0,3.0,73,0.00,,,0.00,0,Wunderground v.1.15,2013-09-27 00:26:00,
2013-09-26 20:28:00,65.7,57.2,29.81,North,9,0.0,3.0,74,0.00,,,0.00,0,Wunderground v.1.15,2013-09-27 00:28:00,
2013-09-26 20:30:00,65.6,57.1,29.81,North,9,0.0,3.0,74,0.00,,,0.00,0,Wunderground v.1.15,2013-09-27 00:30:00,
2013-09-26 20:31:00,65.6,57.1,29.81,North,9,0.0,3.0,74,0.00,,,0.00,0,Wunderground v.1.15,2013-09-27 00:31:00,
2013-09-26 20:35:00,65.5,57.0,29.81,North,9,0.0,3.0,74,0.00,,,0.00,0,Wunderground v.1.15,2013-09-27 00:35:00,
2013-09-26 20:37:00,65.5,57.0,29.81,North,9,0.0,3.0,74,0.00,,,0.00,0,Wunderground v.1.15,2013-09-27 00:37:00,
2013-09-26 20:40:00,65.4,56.9,29.81,North,9,0.0,3.0,74,0.00,,,0.00,0,Wunderground v.1.15,2013-09-27 00:40:00,
2013-09-26 20:41:00,65.4,56.9,29.81,North,9,0.0,3.0,74,0.00,,,0.00,0,Wunderground v.1.15,2013-09-27 00:41:00,
2013-09-26 20:43:00,65.4,56.9,29.81,North,9,0.0,3.0,74,0.00,,,0.00,0,Wunderground v.1.15,2013-09-27 00:43:00,
2013-09-26 20:44:00,65.4,56.9,29.81,North,9,0.0,3.0,74,0.00,,,0.00,0,Wunderground v.1.15,2013-09-27 00:44:00,
2013-09-26 20:47:00,65.4,56.9,29.81,North,9,0.0,3.0,74,0.00,,,0.00,0,Wunderground v.1.15,2013-09-27 00:47:00,
2013-09-26 20:49:00,65.4,56.9,29.82,North,9,0.0,3.0,74,0.00,,,0.00,0,Wunderground v.1.15,2013-09-27 00:49:00,
2013-09-26 20:50:00,65.3,56.8,29.82,North,9,0.0,3.0,74,0.00,,,0.00,0,Wunderground v.1.15,2013-09-27 00:50:00,
2013-09-26 20:52:00,65.3,56.8,29.82,North,9,0.0,3.0,74,0.00,,,0.00,0,Wunderground v.1.15,2013-09-27 00:52:00,
2013-09-26 20:53:00,65.3,56.8,29.82,North,9,0.0,3.0,74,0.00,,,0.00,0,Wunderground v.1.15,2013-09-27 00:53:00,
2013-09-26 20:56:00,65.2,56.7,29.82,North,9,0.0,3.0,74,0.00,,,0.00,0,Wunderground v.1.15,2013-09-27 00:56:00,
2013-09-26 20:57:00,65.2,56.7,29.82,North,9,0.0,3.0,74,0.00,,,0.00,0,Wunderground v.1.15,2013-09-27 00:57:00,
2013-09-26 20:58:00,65.2,56.7,29.82,North,9,0.0,3.0,74,0.00,,,0.00,0,Wunderground v.1.15,2013-09-27 00:58:00,
2013-09-26 21:02:00,65.1,57.0,29.83,North,9,0.0,3.0,75,0.00,,,0.00,0,Wunderground v.1.15,2013-09-27 01:02:00,
2013-09-26 21:03:00,65.1,57.0,29.82,North,9,0.0,3.0,75,0.00,,,0.00,0,Wunderground v.1.15,2013-09-27 01:03:00,
2013-09-26 21:06:00,65.0,57.2,29.82,North,9,0.0,3.0,76,0.00,,,0.00,0,Wunderground v.1.15,2013-09-27 01:06:00,
2013-09-26 21:09:00,64.9,57.2,29.83,North,9,0.0,3.0,76,0.00,,,0.00,0,Wunderground v.1.15,2013-09-27 01:09:00,
2013-09-26 21:10:00,64.9,57.2,29.83,North,9,0.0,3.0,76,0.00,,,0.00,0,Wunderground v.1.15,2013-09-27 01:10:00,
2013-09-26 21:12:00,64.8,57.1,29.83,North,9,0.0,3.0,76,0.00,,,0.00,0,Wunderground v.1.15,2013-09-27 01:12:00,
2013-09-26 21:15:00,64.7,57.3,29.83,North,9,0.0,3.0,77,0.00,,,0.00,0,Wunderground v.1.15,2013-09-27 01:15:00,
2013-09-26 21:16:00,64.7,57.3,29.83,North,9,0.0,3.0,77,0.00,,,0.00,0,Wunderground v.1.15,2013-09-27 01:16:00,
2013-09-26 21:17:00,64.6,57.2,29.83,North,9,0.0,3.0,77,0.00,,,0.00,0,Wunderground v.1.15,2013-09-27 01:17:00,
2013-09-26 21:21:00,64.4,57.0,29.83,North,9,0.0,3.0,77,0.00,,,0.00,0,Wunderground v.1.15,2013-09-27 01:21:00,
2013-09-26 21:22:00,64.4,57.0,29.83,North,9,0.0,3.0,77,0.00,,,0.00,0,Wunderground v.1.15,2013-09-27 01:22:00,
2013-09-26 21:23:00,64.3,56.9,29.83,North,9,0.0,3.0,77,0.00,,,0.00,0,Wunderground v.1.15,2013-09-27 01:23:00,
2013-09-26 21:26:00,64.1,56.7,29.83,North,9,0.0,3.0,77,0.00,,,0.00,0,Wunderground v.1.15,2013-09-27 01:26:00,
2013-09-26 21:29:00,64.0,56.6,29.83,North,9,0.0,3.0,77,0.00,,,0.00,0,Wunderground v.1.15,2013-09-27 01:29:00,
2013-09-26 21:31:00,63.9,56.5,29.83,North,9,0.0,3.0,77,0.00,,,0.00,0,Wunderground v.1.15,2013-09-27 01:31:00,
2013-09-26 21:32:00,63.8,56.4,29.83,North,9,0.0,3.0,77,0.00,,,0.00,0,Wunderground v.1.15,2013-09-27 01:32:00,
2013-09-26 21:34:00,63.7,56.4,29.83,North,9,0.0,3.0,77,0.00,,,0.00,0,Wunderground v.1.15,2013-09-27 01:34:00,
2013-09-26 21:36:00,63.7,56.4,29.83,North,9,0.0,3.0,77,0.00,,,0.00,0,Wunderground v.1.15,2013-09-27 01:36:00,
2013-09-26 21:38:00,63.6,56.3,29.83,North,9,0.0,3.0,77,0.00,,,0.00,0,Wunderground v.1.15,2013-09-27 01:38:00,
2013-09-26 21:40:00,63.6,56.6,29.83,North,9,0.0,3.0,78,0.00,,,0.00,0,Wunderground v.1.15,2013-09-27 01:40:00,
2013-09-26 21:43:00,63.5,56.9,29.83,North,9,0.0,3.0,79,0.00,,,0.00,0,Wunderground v.1.15,2013-09-27 01:43:00,
2013-09-26 21:44:00,63.5,56.9,29.83,North,9,0.0,3.0,79,0.00,,,0.00,0,Wunderground v.1.15,2013-09-27 01:44:00,
2013-09-26 21:48:00,63.3,56.7,29.84,North,9,0.0,3.0,79,0.00,,,0.00,0,Wunderground v.1.15,2013-09-27 01:48:00,
2013-09-26 21:49:00,63.2,56.6,29.84,North,9,0.0,3.0,79,0.00,,,0.00,0,Wunderground v.1.15,2013-09-27 01:49:00,
2013-09-26 21:50:00,63.1,56.8,29.84,North,9,0.0,3.0,80,0.00,,,0.00,0,Wunderground v.1.15,2013-09-27 01:50:00,
2013-09-26 21:52:00,63.0,56.7,29.84,North,9,0.0,3.0,80,0.00,,,0.00,0,Wunderground v.1.15,2013-09-27 01:52:00,
2013-09-26 21:54:00,62.9,56.6,29.84,North,9,0.0,3.0,80,0.00,,,0.00,0,Wunderground v.1.15,2013-09-27 01:54:00,
2013-09-26 21:57:00,62.6,56.3,29.84,North,9,0.0,3.0,80,0.00,,,0.00,0,Wunderground v.1.15,2013-09-27 01:57:00,
2013-09-26 21:59:00,62.5,56.2,29.84,North,9,0.0,3.0,80,0.00,,,0.00,0,Wunderground v.1.15,2013-09-27 01:59:00,
2013-09-26 22:02:00,62.3,56.4,29.84,North,9,0.0,3.0,81,0.00,,,0.00,0,Wunderground v.1.15,2013-09-27 02:02:00,
2013-09-26 22:03:00,62.2,56.3,29.84,North,9,0.0,3.0,81,0.00,,,0.00,0,Wunderground v.1.15,2013-09-27 02:03:00,
2013-09-26 22:04:00,62.2,56.3,29.84,North,9,0.0,3.0,81,0.00,,,0.00,0,Wunderground v.1.15,2013-09-27 02:04:00,
2013-09-26 22:07:00,62.1,56.2,29.84,North,9,0.0,3.0,81,0.00,,,0.00,0,Wunderground v.1.15,2013-09-27 02:07:00,
2013-09-26 22:09:00,62.0,56.1,29.84,North,9,0.0,3.0,81,0.00,,,0.00,0,Wunderground v.1.15,2013-09-27 02:09:00,
2013-09-26 22:10:00,62.0,56.1,29.84,North,9,0.0,3.0,81,0.00,,,0.00,0,Wunderground v.1.15,2013-09-27 02:10:00,
2013-09-26 22:13:00,61.8,56.2,29.84,North,9,0.0,3.0,82,0.00,,,0.00,0,Wunderground v.1.15,2013-09-27 02:13:00,
2013-09-26 22:15:00,61.7,56.1,29.84,North,9,0.0,3.0,82,0.00,,,0.00,0,Wunderground v.1.15,2013-09-27 02:15:00,
2013-09-26 22:19:00,61.5,56.0,29.84,North,9,0.0,3.0,82,0.00,,,0.00,0,Wunderground v.1.15,2013-09-27 02:19:00,
2013-09-26 22:20:00,61.4,56.2,29.84,North,9,0.0,3.0,83,0.00,,,0.00,0,Wunderground v.1.15,2013-09-27 02:20:00,
2013-09-26 22:22:00,61.3,56.1,29.84,North,9,0.0,3.0,83,0.00,,,0.00,0,Wunderground v.1.15,2013-09-27 02:22:00,
2013-09-26 22:24:00,61.2,56.0,29.84,North,9,0.0,3.0,83,0.00,,,0.00,0,Wunderground v.1.15,2013-09-27 02:24:00,
2013-09-26 22:26:00,61.1,55.9,29.84,North,9,0.0,3.0,83,0.00,,,0.00,0,Wunderground v.1.15,2013-09-27 02:26:00,
2013-09-26 22:31:00,60.9,55.7,29.85,North,9,0.0,3.0,83,0.00,,,0.00,0,Wunderground v.1.15,2013-09-27 02:31:00,
2013-09-26 22:32:00,60.9,55.7,29.85,North,9,0.0,3.0,83,0.00,,,0.00,0,Wunderground v.1.15,2013-09-27 02:32:00,
2013-09-26 22:36:00,60.7,55.8,29.85,North,9,0.0,3.0,84,0.00,,,0.00,0,Wunderground v.1.15,2013-09-27 02:36:00,
2013-09-26 22:37:00,60.7,55.8,29.85,North,9,0.0,3.0,84,0.00,,,0.00,0,Wunderground v.1.15,2013-09-27 02:37:00,
2013-09-26 22:39:00,60.6,55.7,29.85,North,9,0.0,3.0,84,0.00,,,0.00,0,Wunderground v.1.15,2013-09-27 02:39:00,
2013-09-26 22:40:00,60.6,55.7,29.85,North,9,0.0,3.0,84,0.00,,,0.00,0,Wunderground v.1.15,2013-09-27 02:40:00,
2013-09-26 22:44:00,60.4,55.5,29.85,North,9,0.0,3.0,84,0.00,,,0.00,0,Wunderground v.1.15,2013-09-27 02:44:00,
2013-09-26 22:45:00,60.4,55.5,29.85,North,9,0.0,3.0,84,0.00,,,0.00,0,Wunderground v.1.15,2013-09-27 02:45:00,
2013-09-26 22:47:00,60.3,55.8,29.85,North,9,0.0,3.0,85,0.00,,,0.00,0,Wunderground v.1.15,2013-09-27 02:47:00,
2013-09-26 22:48:00,60.3,55.8,29.85,North,9,0.0,3.0,85,0.00,,,0.00,0,Wunderground v.1.15,2013-09-27 02:48:00,
2013-09-26 22:51:00,60.2,55.7,29.85,North,9,0.0,3.0,85,0.00,,,0.00,0,Wunderground v.1.15,2013-09-27 02:51:00,
2013-09-26 22:52:00,60.1,55.6,29.85,North,9,0.0,3.0,85,0.00,,,0.00,0,Wunderground v.1.15,2013-09-27 02:52:00,
2013-09-26 22:53:00,60.1,55.6,29.85,North,9,0.0,3.0,85,0.00,,,0.00,0,Wunderground v.1.15,2013-09-27 02:53:00,
2013-09-26 22:57:00,59.8,55.3,29.85,North,9,0.0,3.0,85,0.00,,,0.00,0,Wunderground v.1.15,2013-09-27 02:57:00,
2013-09-26 22:58:00,59.8,55.3,29.85,North,9,0.0,3.0,85,0.00,,,0.00,0,Wunderground v.1.15,2013-09-27 02:58:00,
2013-09-26 23:02:00,59.6,55.4,29.85,North,9,0.0,3.0,86,0.00,,,0.00,0,Wunderground v.1.15,2013-09-27 03:02:00,
2013-09-26 23:05:00,59.5,55.3,29.85,North,9,0.0,3.0,86,0.00,,,0.00,0,Wunderground v.1.15,2013-09-27 03:05:00,
2013-09-26 23:07:00,59.4,55.2,29.85,North,9,0.0,3.0,86,0.00,,,0.00,0,Wunderground v.1.15,2013-09-27 03:07:00,
2013-09-26 23:08:00,59.4,55.2,29.85,North,9,0.0,3.0,86,0.00,,,0.00,0,Wunderground v.1.15,2013-09-27 03:08:00,
2013-09-26 23:09:00,59.3,55.1,29.85,North,9,0.0,3.0,86,0.00,,,0.00,0,Wunderground v.1.15,2013-09-27 03:09:00,
2013-09-26 23:12:00,59.2,55.0,29.85,North,9,0.0,3.0,86,0.00,,,0.00,0,Wunderground v.1.15,2013-09-27 03:12:00,
2013-09-26 23:14:00,59.2,55.3,29.85,North,9,0.0,3.0,87,0.00,,,0.00,0,Wunderground v.1.15,2013-09-27 03:14:00,
2013-09-26 23:15:00,59.1,55.2,29.85,North,9,0.0,3.0,87,0.00,,,0.00,0,Wunderground v.1.15,2013-09-27 03:15:00,
2013-09-26 23:17:00,59.0,55.1,29.85,North,9,0.0,3.0,87,0.00,,,0.00,0,Wunderground v.1.15,2013-09-27 03:17:00,
2013-09-26 23:20:00,58.9,55.0,29.85,North,9,0.0,3.0,87,0.00,,,0.00,0,Wunderground v.1.15,2013-09-27 03:20:00,
2013-09-26 23:23:00,58.9,55.0,29.85,North,9,0.0,3.0,87,0.00,,,0.00,0,Wunderground v.1.15,2013-09-27 03:23:00,
2013-09-26 23:25:00,58.8,54.9,29.85,North,9,0.0,3.0,87,0.00,,,0.00,0,Wunderground v.1.15,2013-09-27 03:25:00,
2013-09-26 23:29:00,58.7,54.8,29.85,North,9,0.0,3.0,87,0.00,,,0.00,0,Wunderground v.1.15,2013-09-27 03:29:00,
2013-09-26 23:30:00,58.7,54.8,29.85,North,9,0.0,3.0,87,0.00,,,0.00,0,Wunderground v.1.15,2013-09-27 03:30:00,
2013-09-26 23:32:00,58.6,54.7,29.86,North,9,0.0,3.0,87,0.00,,,0.00,0,Wunderground v.1.15,2013-09-27 03:32:00,
2013-09-26 23:34:00,58.6,54.7,29.85,North,9,0.0,3.0,87,0.00,,,0.00,0,Wunderground v.1.15,2013-09-27 03:34:00,
2013-09-26 23:36:00,58.5,55.0,29.85,North,9,0.0,3.0,88,0.00,,,0.00,0,Wunderground v.1.15,2013-09-27 03:36:00,
2013-09-26 23:39:00,58.5,55.0,29.86,North,9,0.0,3.0,88,0.00,,,0.00,0,Wunderground v.1.15,2013-09-27 03:39:00,
2013-09-26 23:41:00,58.4,54.9,29.86,North,9,0.0,3.0,88,0.00,,,0.00,0,Wunderground v.1.15,2013-09-27 03:41:00,
2013-09-26 23:42:00,58.4,54.9,29.86,North,9,0.0,3.0,88,0.00,,,0.00,0,Wunderground v.1.15,2013-09-27 03:42:00,
2013-09-26 23:43:00,58.3,54.8,29.86,North,9,0.0,3.0,88,0.00,,,0.00,0,Wunderground v.1.15,2013-09-27 03:43:00,
2013-09-26 23:45:00,58.3,54.8,29.86,North,9,0.0,3.0,88,0.00,,,0.00,0,Wunderground v.1.15,2013-09-27 03:45:00,
2013-09-26 23:47:00,58.2,54.7,29.86,North,9,0.0,3.0,88,0.00,,,0.00,0,Wunderground v.1.15,2013-09-27 03:47:00,
2013-09-26 23:49:00,58.2,54.7,29.86,North,9,0.0,3.0,88,0.00,,,0.00,0,Wunderground v.1.15,2013-09-27 03:49:00,
2013-09-26 23:53:00,58.1,54.6,29.86,North,9,0.0,3.0,88,0.00,,,0.00,0,Wunderground v.1.15,2013-09-27 03:53:00,
2013-09-26 23:57:00,58.0,54.5,29.86,North,9,0.0,3.0,88,0.00,,,0.00,0,Wunderground v.1.15,2013-09-27 03:57:00,
2013-09-26 23:58:00,58.0,54.5,29.86,North,9,0.0,3.0,88,0.00,,,0.00,0,Wunderground v.1.15,2013-09-27 03:58:00,